AFR83K KSFO-LFPG

Flight info

Callsign AFR83K
Flight time N/A
Altitude 33000
Route SNTNA2 ORRCA DCT FMG DCT TWF DCT BIL DCT MOT DCT 50N098W 53N090W DCT GRAND/N0494F350 DCT 58N070W DCT LOPVI DCT PEPKI/M084F350 DCT RADUN DCT 61N050W 61N040W 60N030W 59N020W DCT GOMUP/N0481F350 DCT GINGA/N0481F370 DCT MAKUX DCT SOSIM L15 KEPAD L151 MID/N0498F290 Y803 SFD UM605 BIBAX
Aircraft B77W/H-SDE1E2E3FGHIJ2J3J4J5M1RWXY/LB1D1

Departure

Time 2026-05-06 22:32
Airport San Francisco International Airport (KSFO)

Arrival

Time N/A
Airport Charles de Gaulle International Airport (LFPG)
Time Latitude Longitude Altitude Speed Heading
2026-05-06 21:31 37.61283 -122.38847 29 ft 0 kts 298°
2026-05-06 22:14 37.61281 -122.38843 25 ft 3 kts 298°
2026-05-06 22:14 37.61268 -122.38813 31 ft 4 kts 299°
2026-05-06 22:14 37.61256 -122.38783 31 ft 4 kts 286°
2026-05-06 22:14 37.61255 -122.38757 30 ft 3 kts 217°
2026-05-06 22:15 37.61258 -122.38754 31 ft 0 kts 207°
2026-05-06 22:20 37.61228 -122.38773 28 ft 10 kts 207°
2026-05-06 22:20 37.61156 -122.38820 31 ft 12 kts 207°
2026-05-06 22:20 37.61083 -122.38868 30 ft 12 kts 205°
2026-05-06 22:21 37.61019 -122.38853 28 ft 9 kts 142°
2026-05-06 22:21 37.60982 -122.38793 26 ft 9 kts 119°
2026-05-06 22:21 37.60953 -122.38726 28 ft 9 kts 118°
2026-05-06 22:21 37.60925 -122.38658 29 ft 9 kts 118°
2026-05-06 22:22 37.60896 -122.38590 31 ft 10 kts 118°
2026-05-06 22:22 37.60879 -122.38515 27 ft 8 kts 96°
2026-05-06 22:22 37.60868 -122.38447 27 ft 8 kts 104°
2026-05-06 22:22 37.60892 -122.38384 28 ft 9 kts 38°
2026-05-06 22:23 37.60948 -122.38343 31 ft 10 kts 29°
2026-05-06 22:23 37.61010 -122.38302 28 ft 11 kts 27°
2026-05-06 22:23 37.61078 -122.38257 28 ft 12 kts 27°
2026-05-06 22:23 37.61168 -122.38199 30 ft 16 kts 27°
2026-05-06 22:24 37.61260 -122.38138 31 ft 13 kts 27°
2026-05-06 22:24 37.61337 -122.38087 28 ft 11 kts 27°
2026-05-06 22:24 37.61370 -122.38031 28 ft 8 kts 87°
2026-05-06 22:24 37.61351 -122.37960 29 ft 11 kts 115°
2026-05-06 22:25 37.61316 -122.37875 28 ft 11 kts 118°
2026-05-06 22:25 37.61281 -122.37793 28 ft 11 kts 118°
2026-05-06 22:25 37.61246 -122.37708 29 ft 11 kts 115°
2026-05-06 22:25 37.61229 -122.37618 27 ft 11 kts 89°
2026-05-06 22:26 37.61251 -122.37528 28 ft 11 kts 59°
2026-05-06 22:26 37.61312 -122.37460 28 ft 15 kts 31°
2026-05-06 22:26 37.61404 -122.37399 29 ft 15 kts 27°
2026-05-06 22:26 37.61489 -122.37340 31 ft 13 kts 32°
2026-05-06 22:27 37.61547 -122.37257 29 ft 13 kts 65°
2026-05-06 22:27 37.61558 -122.37147 25 ft 13 kts 99°
2026-05-06 22:27 37.61523 -122.37045 26 ft 13 kts 118°
2026-05-06 22:27 37.61481 -122.36946 31 ft 13 kts 120°
2026-05-06 22:28 37.61424 -122.36864 29 ft 13 kts 133°
2026-05-06 22:28 37.61363 -122.36771 31 ft 15 kts 123°
2026-05-06 22:28 37.61311 -122.36652 29 ft 16 kts 118°
2026-05-06 22:28 37.61266 -122.36545 27 ft 13 kts 118°
2026-05-06 22:29 37.61223 -122.36443 30 ft 13 kts 118°
2026-05-06 22:29 37.61181 -122.36341 29 ft 13 kts 118°
2026-05-06 22:29 37.61137 -122.36238 27 ft 13 kts 117°
2026-05-06 22:29 37.61095 -122.36136 29 ft 13 kts 117°
2026-05-06 22:30 37.61056 -122.36038 29 ft 10 kts 108°
2026-05-06 22:30 37.61062 -122.35952 29 ft 10 kts 62°
2026-05-06 22:30 37.61115 -122.35894 29 ft 10 kts 32°
2026-05-06 22:30 37.61175 -122.35874 28 ft 6 kts 341°
2026-05-06 22:31 37.61203 -122.35914 29 ft 6 kts 300°
2026-05-06 22:31 37.61213 -122.35938 29 ft 0 kts 299°
2026-05-06 22:31 37.61217 -122.35947 30 ft 10 kts 299°
2026-05-06 22:31 37.61396 -122.36371 29 ft 102 kts 298°
2026-05-06 22:32 37.61876 -122.37509 67 ft 185 kts 298°
2026-05-06 22:32 37.62552 -122.39034 834 ft 216 kts 298°
2026-05-06 22:32 37.63321 -122.40776 2079 ft 225 kts 298°
2026-05-06 22:32 37.64075 -122.42602 3061 ft 246 kts 298°
2026-05-06 22:33 37.64897 -122.44578 3550 ft 260 kts 299°
2026-05-06 22:33 37.65767 -122.46618 4236 ft 266 kts 300°
2026-05-06 22:33 37.66657 -122.48680 5056 ft 269 kts 301°
2026-05-06 22:33 37.67618 -122.50721 5708 ft 272 kts 311°
2026-05-06 22:34 37.69142 -122.52121 6245 ft 275 kts 341°
2026-05-06 22:34 37.71015 -122.52519 6954 ft 270 kts 360°
2026-05-06 22:34 37.72919 -122.52567 7576 ft 277 kts 359°
2026-05-06 22:34 37.74861 -122.52638 8309 ft 277 kts 359°
2026-05-06 22:35 37.76792 -122.52711 9087 ft 279 kts 359°
2026-05-06 22:35 37.78716 -122.52632 9707 ft 280 kts 14°
2026-05-06 22:35 37.80470 -122.51537 10199 ft 290 kts 42°
2026-05-06 22:35 37.81719 -122.49454 10422 ft 309 kts 63°
2026-05-06 22:36 37.82607 -122.46886 10577 ft 330 kts 65°
2026-05-06 22:36 37.83558 -122.44135 10727 ft 351 kts 64°
2026-05-06 22:36 37.84889 -122.41495 10995 ft 362 kts 49°
2026-05-06 22:36 37.86601 -122.39116 11686 ft 367 kts 47°
2026-05-06 22:37 37.88332 -122.36726 12444 ft 370 kts 48°
2026-05-06 22:37 37.90072 -122.34289 13153 ft 374 kts 49°
2026-05-06 22:37 37.91809 -122.31829 14006 ft 376 kts 49°
2026-05-06 22:37 37.93558 -122.29334 14590 ft 382 kts 49°
2026-05-06 22:38 37.95334 -122.26787 15109 ft 390 kts 49°
2026-05-06 22:38 37.97114 -122.24224 15751 ft 393 kts 49°
2026-05-06 22:38 37.98919 -122.21617 16492 ft 394 kts 49°
2026-05-06 22:38 38.00739 -122.18985 17079 ft 399 kts 49°
2026-05-06 22:39 38.02582 -122.16317 17699 ft 403 kts 49°
2026-05-06 22:39 38.04439 -122.13629 18369 ft 406 kts 49°
2026-05-06 22:39 38.06306 -122.10924 18938 ft 409 kts 49°
2026-05-06 22:39 38.08195 -122.08184 19468 ft 413 kts 49°
2026-05-06 22:40 38.10095 -122.05427 19995 ft 417 kts 48°
2026-05-06 22:40 38.12009 -122.02647 20555 ft 420 kts 48°
2026-05-06 22:40 38.13914 -121.99877 21058 ft 423 kts 48°
2026-05-06 22:40 38.15857 -121.97049 21573 ft 427 kts 48°
2026-05-06 22:41 38.19800 -121.91301 22570 ft 435 kts 47°
2026-05-06 22:41 38.21799 -121.88384 23079 ft 438 kts 47°
2026-05-06 22:41 38.23806 -121.85452 23566 ft 442 kts 47°
2026-05-06 22:42 38.25832 -121.82489 23995 ft 445 kts 47°
2026-05-06 22:42 38.27869 -121.79507 24423 ft 447 kts 47°
2026-05-06 22:42 38.29915 -121.76509 24866 ft 450 kts 47°
2026-05-06 22:42 38.31969 -121.73497 25293 ft 452 kts 47°
2026-05-06 22:43 38.34034 -121.70465 25709 ft 454 kts 47°
2026-05-06 22:43 38.36113 -121.67409 26107 ft 457 kts 47°
2026-05-06 22:43 38.38206 -121.64331 26491 ft 459 kts 47°
2026-05-06 22:43 38.40304 -121.61242 26881 ft 462 kts 47°
2026-05-06 22:44 38.42389 -121.58171 27250 ft 464 kts 47°
2026-05-06 22:44 38.44498 -121.55036 27622 ft 467 kts 49°
2026-05-06 22:44 38.46501 -121.51758 27984 ft 470 kts 51°
2026-05-06 22:44 38.47836 -121.49498 28232 ft 472 kts 51°
2026-05-06 22:45 38.49803 -121.46136 28561 ft 474 kts 51°
2026-05-06 22:45 38.51776 -121.42749 28900 ft 476 kts 51°
2026-05-06 22:45 38.53759 -121.39346 29178 ft 478 kts 51°
2026-05-06 22:45 38.55751 -121.35935 29466 ft 480 kts 51°
2026-05-06 22:46 38.57753 -121.32510 29768 ft 482 kts 51°
2026-05-06 22:46 38.59741 -121.29113 30086 ft 483 kts 51°
2026-05-06 22:46 38.61750 -121.25679 30444 ft 481 kts 51°
2026-05-06 22:46 38.63755 -121.22250 30811 ft 480 kts 51°
2026-05-06 22:47 38.65751 -121.18833 31059 ft 481 kts 51°
2026-05-06 22:47 38.69771 -121.11944 31115 ft 481 kts 51°
2026-05-06 22:48 38.73752 -121.05100 31142 ft 478 kts 51°
2026-05-06 22:48 38.77716 -120.98273 31148 ft 477 kts 51°
2026-05-06 22:49 38.81655 -120.91475 31174 ft 478 kts 51°
2026-05-06 22:49 38.85616 -120.84627 31176 ft 478 kts 51°
2026-05-06 22:50 38.89571 -120.77771 31166 ft 478 kts 51°
2026-05-06 22:50 38.93528 -120.70898 31161 ft 478 kts 51°
2026-05-06 22:51 38.97484 -120.64012 31148 ft 479 kts 51°
2026-05-06 22:51 39.01406 -120.57170 31173 ft 478 kts 51°
2026-05-06 22:52 39.05354 -120.50270 31167 ft 479 kts 51°
2026-05-06 22:52 39.09302 -120.43355 31169 ft 478 kts 51°
2026-05-06 22:53 39.13240 -120.36438 31197 ft 478 kts 51°
2026-05-06 22:53 39.17173 -120.29520 31229 ft 478 kts 51°
2026-05-06 22:54 39.21096 -120.22603 31254 ft 478 kts 52°
2026-05-06 22:54 39.24988 -120.15728 31269 ft 477 kts 52°
2026-05-06 22:55 39.28897 -120.08804 31281 ft 477 kts 52°
2026-05-06 22:55 39.32802 -120.01873 31272 ft 477 kts 52°
2026-05-06 22:55 39.34749 -119.98411 31140 ft 477 kts 52°
2026-05-06 22:56 39.36698 -119.94942 31131 ft 477 kts 52°
2026-05-06 22:56 39.40600 -119.87990 31169 ft 477 kts 52°
2026-05-06 22:57 39.44472 -119.81073 31196 ft 478 kts 52°
2026-05-06 22:57 39.48365 -119.74099 31185 ft 478 kts 52°
2026-05-06 22:58 39.52257 -119.67119 31182 ft 478 kts 52°
2026-05-06 22:58 39.56257 -119.60238 31159 ft 477 kts 49°
2026-05-06 22:59 39.60444 -119.53568 31134 ft 476 kts 48°
2026-05-06 22:59 39.64632 -119.46901 31096 ft 476 kts 49°
2026-05-06 23:00 39.68754 -119.40250 31060 ft 475 kts 49°
2026-05-06 23:00 39.72875 -119.33542 31055 ft 475 kts 49°
2026-05-06 23:01 39.76994 -119.26811 31048 ft 476 kts 49°
2026-05-06 23:01 39.81119 -119.20059 31055 ft 477 kts 49°
2026-05-06 23:02 39.85250 -119.13285 31048 ft 478 kts 49°
2026-05-06 23:02 39.89381 -119.06502 31042 ft 478 kts 49°
2026-05-06 23:03 39.93508 -118.99706 31049 ft 477 kts 49°
2026-05-06 23:03 39.97598 -118.92958 31078 ft 477 kts 49°
2026-05-06 23:04 40.01705 -118.86167 31073 ft 476 kts 49°
2026-05-06 23:04 40.05802 -118.79375 31103 ft 476 kts 49°
2026-05-06 23:05 40.09898 -118.72575 31055 ft 476 kts 49°
2026-05-06 23:05 40.13986 -118.65771 31071 ft 476 kts 49°
2026-05-06 23:06 40.18071 -118.58957 31062 ft 477 kts 49°
2026-05-06 23:06 40.22161 -118.52121 31068 ft 477 kts 49°
2026-05-06 23:07 40.26254 -118.45264 31068 ft 478 kts 49°
2026-05-06 23:07 40.30342 -118.38399 31074 ft 478 kts 49°
2026-05-06 23:08 40.34405 -118.31561 31080 ft 478 kts 49°
2026-05-06 23:08 40.38491 -118.24672 31077 ft 478 kts 49°
2026-05-06 23:09 40.42568 -118.17781 31071 ft 477 kts 49°
2026-05-06 23:09 40.46636 -118.10893 31082 ft 478 kts 49°
2026-05-06 23:10 40.50707 -118.03982 31080 ft 478 kts 49°
2026-05-06 23:10 40.54781 -117.97048 31090 ft 479 kts 49°
2026-05-06 23:11 40.58834 -117.90136 31092 ft 481 kts 49°
2026-05-06 23:11 40.62918 -117.83157 31086 ft 481 kts 49°
2026-05-06 23:12 40.67010 -117.76148 31089 ft 481 kts 49°
2026-05-06 23:12 40.71084 -117.69153 31086 ft 481 kts 49°
2026-05-06 23:13 40.75159 -117.62140 31082 ft 481 kts 49°
2026-05-06 23:13 40.79215 -117.55146 31114 ft 481 kts 49°
2026-05-06 23:14 40.83279 -117.48123 31104 ft 481 kts 49°
2026-05-06 23:14 40.87316 -117.41129 31100 ft 481 kts 49°
2026-05-06 23:15 40.91373 -117.34084 31084 ft 481 kts 49°
2026-05-06 23:15 40.95427 -117.27028 31074 ft 482 kts 49°
2026-05-06 23:16 40.99477 -117.19963 31081 ft 481 kts 49°
2026-05-06 23:16 41.03523 -117.12889 31086 ft 481 kts 49°
2026-05-06 23:17 41.07557 -117.05820 31074 ft 481 kts 49°
2026-05-06 23:17 41.11587 -116.98741 31086 ft 480 kts 49°
2026-05-06 23:18 41.15610 -116.91661 31085 ft 480 kts 49°
2026-05-06 23:18 41.19628 -116.84571 31110 ft 481 kts 49°
2026-05-06 23:19 41.23620 -116.77510 31088 ft 481 kts 49°
2026-05-06 23:19 41.27636 -116.70391 31095 ft 481 kts 49°
2026-05-06 23:20 41.31647 -116.63264 31096 ft 481 kts 49°
2026-05-06 23:20 41.35652 -116.56131 31122 ft 481 kts 49°
2026-05-06 23:21 41.39650 -116.48994 31113 ft 481 kts 49°
2026-05-06 23:21 41.43645 -116.41844 31103 ft 481 kts 49°
2026-05-06 23:22 41.47612 -116.34733 31127 ft 481 kts 49°
2026-05-06 23:22 41.51601 -116.27563 31113 ft 481 kts 49°
2026-05-06 23:23 41.55593 -116.20369 31112 ft 482 kts 49°
2026-05-06 23:23 41.59575 -116.13179 31124 ft 481 kts 49°
2026-05-06 23:24 41.63548 -116.05983 31136 ft 481 kts 49°
2026-05-06 23:24 41.67519 -115.98776 31139 ft 481 kts 49°
2026-05-06 23:25 41.71457 -115.91612 31137 ft 481 kts 49°
2026-05-06 23:25 41.75416 -115.84395 31125 ft 481 kts 49°
2026-05-06 23:26 41.79365 -115.77178 31115 ft 480 kts 49°
2026-05-06 23:26 41.83308 -115.69955 31127 ft 479 kts 49°
2026-05-06 23:27 41.87246 -115.62724 31138 ft 480 kts 49°
2026-05-06 23:27 41.91181 -115.55481 31119 ft 480 kts 49°
2026-05-06 23:28 41.95115 -115.48222 31114 ft 481 kts 49°
2026-05-06 23:28 41.99047 -115.40950 31113 ft 480 kts 49°
2026-05-06 23:29 42.02941 -115.33729 31118 ft 480 kts 49°
2026-05-06 23:29 42.06857 -115.26449 31118 ft 480 kts 49°
2026-05-06 23:30 42.10763 -115.19174 31110 ft 479 kts 49°
2026-05-06 23:30 42.14660 -115.11897 31103 ft 479 kts 49°
2026-05-06 23:31 42.18557 -115.04601 31093 ft 479 kts 49°
2026-05-06 23:31 42.22449 -114.97299 31090 ft 479 kts 49°
2026-05-06 23:32 42.26312 -114.90033 31083 ft 479 kts 49°
2026-05-06 23:32 42.30191 -114.82717 31092 ft 478 kts 49°
2026-05-06 23:33 42.33408 -114.76638 31095 ft 478 kts 49°
2026-05-06 23:33 42.37278 -114.69308 31098 ft 478 kts 49°
2026-05-06 23:34 42.41140 -114.61973 31113 ft 478 kts 49°
2026-05-06 23:34 42.44995 -114.54637 31121 ft 478 kts 49°
2026-05-06 23:35 42.48898 -114.47327 31119 ft 477 kts 46°
2026-05-06 23:35 42.53109 -114.40504 31113 ft 474 kts 44°
2026-05-06 23:36 42.57429 -114.33731 31059 ft 475 kts 44°
2026-05-06 23:36 42.61732 -114.26912 31066 ft 476 kts 44°
2026-05-06 23:37 42.66014 -114.20044 31072 ft 476 kts 45°
2026-05-06 23:37 42.70274 -114.13169 31068 ft 475 kts 45°
2026-05-06 23:38 42.74520 -114.06298 31067 ft 474 kts 45°
2026-05-06 23:38 42.78759 -113.99428 31071 ft 474 kts 45°
2026-05-06 23:39 42.82966 -113.92596 31057 ft 474 kts 44°
2026-05-06 23:39 42.87208 -113.85693 31038 ft 475 kts 45°
2026-05-06 23:40 42.91460 -113.78754 31028 ft 476 kts 45°
2026-05-06 23:40 42.95708 -113.71806 31030 ft 477 kts 45°
2026-05-06 23:41 42.99956 -113.64840 31025 ft 478 kts 45°
2026-05-06 23:41 43.04204 -113.57858 31028 ft 478 kts 45°
2026-05-06 23:42 43.08422 -113.50909 31050 ft 478 kts 45°
2026-05-06 23:42 43.12667 -113.43899 31018 ft 478 kts 45°
2026-05-06 23:43 43.16914 -113.36870 31022 ft 479 kts 45°
2026-05-06 23:43 43.21162 -113.29822 31027 ft 479 kts 45°
2026-05-06 23:44 43.25410 -113.22757 31033 ft 480 kts 45°
2026-05-06 23:44 43.29649 -113.15688 31018 ft 480 kts 45°
2026-05-06 23:45 43.33858 -113.08654 31022 ft 480 kts 45°
2026-05-06 23:45 43.38094 -113.01557 31022 ft 479 kts 45°
2026-05-06 23:46 43.42316 -112.94467 31031 ft 479 kts 45°
2026-05-06 23:46 43.46534 -112.87364 31026 ft 479 kts 45°
2026-05-06 23:47 43.50747 -112.80253 31029 ft 478 kts 45°
2026-05-06 23:47 43.54930 -112.73177 31052 ft 478 kts 45°
2026-05-06 23:48 43.59135 -112.66047 31035 ft 479 kts 45°
2026-05-06 23:48 43.63332 -112.58913 31032 ft 478 kts 45°
2026-05-06 23:49 43.67515 -112.51784 31038 ft 478 kts 45°
2026-05-06 23:49 43.71697 -112.44637 31082 ft 478 kts 45°
2026-05-06 23:50 43.75868 -112.37493 31043 ft 476 kts 45°
2026-05-06 23:50 43.82093 -112.26798 31036 ft 474 kts 45°
2026-05-06 23:51 43.86225 -112.19680 31058 ft 474 kts 45°
2026-05-06 23:51 43.90325 -112.12599 31068 ft 474 kts 45°
2026-05-06 23:52 43.94452 -112.05453 31075 ft 474 kts 45°
2026-05-06 23:52 43.98579 -111.98289 31077 ft 475 kts 45°
2026-05-06 23:53 44.02674 -111.91164 31102 ft 475 kts 45°
2026-05-06 23:53 44.06804 -111.83959 31083 ft 476 kts 45°
2026-05-06 23:54 44.10928 -111.76746 31076 ft 476 kts 45°
2026-05-06 23:54 44.15050 -111.69518 31078 ft 476 kts 45°
2026-05-06 23:55 44.19168 -111.62280 31083 ft 477 kts 45°
2026-05-06 23:55 44.23275 -111.55043 31089 ft 476 kts 45°
2026-05-06 23:56 44.27383 -111.47786 31088 ft 476 kts 45°
2026-05-06 23:56 44.31455 -111.40574 31083 ft 475 kts 45°
2026-05-06 23:57 44.35540 -111.33318 31097 ft 474 kts 44°
2026-05-06 23:57 44.39607 -111.26079 31098 ft 472 kts 44°
2026-05-06 23:58 44.43646 -111.18872 31099 ft 470 kts 44°
2026-05-06 23:58 44.47677 -111.11663 31098 ft 469 kts 45°
2026-05-06 23:59 44.51693 -111.04464 31110 ft 469 kts 45°
2026-05-06 23:59 44.55679 -110.97299 31101 ft 468 kts 45°
2026-05-07 00:00 44.59683 -110.90083 31095 ft 468 kts 45°
2026-05-07 00:00 44.63001 -110.84089 31105 ft 468 kts 45°
2026-05-07 00:01 44.67679 -110.75620 31095 ft 471 kts 45°
2026-05-07 00:01 44.71697 -110.68324 31091 ft 473 kts 45°
2026-05-07 00:02 44.75731 -110.60980 31053 ft 475 kts 45°
2026-05-07 00:02 44.79766 -110.53613 31103 ft 475 kts 45°
2026-05-07 00:03 44.83800 -110.46230 31055 ft 475 kts 45°
2026-05-07 00:03 44.87822 -110.38849 31058 ft 475 kts 45°
2026-05-07 00:04 44.91808 -110.31515 31063 ft 474 kts 45°
2026-05-07 00:04 44.95816 -110.24125 31092 ft 473 kts 45°
2026-05-07 00:05 44.99815 -110.16731 31065 ft 473 kts 45°
2026-05-07 00:05 45.03794 -110.09351 31050 ft 471 kts 45°
2026-05-07 00:06 45.07758 -110.01985 31048 ft 470 kts 45°
2026-05-07 00:06 45.11710 -109.94620 31072 ft 469 kts 45°
2026-05-07 00:07 45.15633 -109.87291 31034 ft 469 kts 45°
2026-05-07 00:07 45.19580 -109.79907 31042 ft 469 kts 45°
2026-05-07 00:08 45.23528 -109.72498 31017 ft 472 kts 45°
2026-05-07 00:08 45.27497 -109.65022 31003 ft 474 kts 45°
2026-05-07 00:09 45.31451 -109.57554 30987 ft 472 kts 45°
2026-05-07 00:09 45.35390 -109.50092 30984 ft 471 kts 45°
2026-05-07 00:10 45.39313 -109.42648 30981 ft 470 kts 45°
2026-05-07 00:10 45.43209 -109.35237 30954 ft 470 kts 45°
2026-05-07 00:11 45.47125 -109.27768 30946 ft 470 kts 45°
2026-05-07 00:11 45.51036 -109.20290 30939 ft 470 kts 45°
2026-05-07 00:12 45.54945 -109.12792 30929 ft 471 kts 46°
2026-05-07 00:12 45.58855 -109.05274 30951 ft 472 kts 46°
2026-05-07 00:13 45.62772 -108.97726 30926 ft 473 kts 46°
2026-05-07 00:13 45.66686 -108.90156 30931 ft 474 kts 46°
2026-05-07 00:14 45.70602 -108.82564 30914 ft 474 kts 46°
2026-05-07 00:14 45.74487 -108.75012 30943 ft 474 kts 46°
2026-05-07 00:15 45.78394 -108.67399 30901 ft 474 kts 46°
2026-05-07 00:15 45.82117 -108.59560 30894 ft 479 kts 53°
2026-05-07 00:16 45.85302 -108.51151 30891 ft 480 kts 54°
2026-05-07 00:16 45.88465 -108.42713 30924 ft 480 kts 54°
2026-05-07 00:17 45.91633 -108.34312 30911 ft 482 kts 53°
2026-05-07 00:17 45.94855 -108.25782 30922 ft 483 kts 53°
2026-05-07 00:18 45.98039 -108.17338 30914 ft 484 kts 54°
2026-05-07 00:18 46.01236 -108.08831 30966 ft 483 kts 53°
2026-05-07 00:19 46.04428 -108.00307 30934 ft 483 kts 53°
2026-05-07 00:19 46.07608 -107.91791 30925 ft 482 kts 53°
2026-05-07 00:20 46.10773 -107.83287 30945 ft 481 kts 53°
2026-05-07 00:20 46.13911 -107.74832 30974 ft 480 kts 53°
2026-05-07 00:21 46.17053 -107.66337 30949 ft 480 kts 53°
2026-05-07 00:21 46.20186 -107.57841 30955 ft 479 kts 53°
2026-05-07 00:22 46.22804 -107.50723 30952 ft 479 kts 54°
2026-05-07 00:22 46.25920 -107.42224 31002 ft 479 kts 53°
2026-05-07 00:23 46.29015 -107.33757 30972 ft 479 kts 53°
2026-05-07 00:23 46.32118 -107.25236 30971 ft 478 kts 53°
2026-05-07 00:24 46.35208 -107.16725 30974 ft 478 kts 53°
2026-05-07 00:24 46.38296 -107.08197 31010 ft 478 kts 53°
2026-05-07 00:25 46.41381 -106.99652 30973 ft 478 kts 54°
2026-05-07 00:25 46.44456 -106.91101 30972 ft 478 kts 54°
2026-05-07 00:26 46.47523 -106.82546 30993 ft 478 kts 54°
2026-05-07 00:26 46.50588 -106.73971 31014 ft 478 kts 53°
2026-05-07 00:27 46.53645 -106.65389 30986 ft 478 kts 54°
2026-05-07 00:27 46.56679 -106.56842 30982 ft 478 kts 54°
2026-05-07 00:28 46.59721 -106.48249 30973 ft 478 kts 54°
2026-05-07 00:28 46.62757 -106.39644 30977 ft 478 kts 54°
2026-05-07 00:29 46.65795 -106.31007 30981 ft 479 kts 54°
2026-05-07 00:30 46.71824 -106.13779 30977 ft 479 kts 54°
2026-05-07 00:30 46.74837 -106.05126 30972 ft 479 kts 54°
2026-05-07 00:31 46.77847 -105.96453 30976 ft 479 kts 54°
2026-05-07 00:31 46.80851 -105.87772 30977 ft 479 kts 54°
2026-05-07 00:32 46.83851 -105.79072 30975 ft 479 kts 54°
2026-05-07 00:32 46.86841 -105.70370 30978 ft 479 kts 54°
2026-05-07 00:33 46.89816 -105.61688 30984 ft 480 kts 54°
2026-05-07 00:33 46.92798 -105.52948 30983 ft 480 kts 54°
2026-05-07 00:34 46.95773 -105.44205 30974 ft 480 kts 54°
2026-05-07 00:34 46.98739 -105.35458 30983 ft 479 kts 54°
2026-05-07 00:35 47.01701 -105.26694 30982 ft 480 kts 54°
2026-05-07 00:35 47.04656 -105.17922 30982 ft 480 kts 54°
2026-05-07 00:36 47.07603 -105.09141 30989 ft 480 kts 54°
2026-05-07 00:36 47.10545 -105.00349 30984 ft 480 kts 54°
2026-05-07 00:37 47.13480 -104.91546 30952 ft 480 kts 54°
2026-05-07 00:37 47.16391 -104.82788 30946 ft 480 kts 54°
2026-05-07 00:38 47.19315 -104.73956 30938 ft 479 kts 54°
2026-05-07 00:38 47.22227 -104.65132 30951 ft 479 kts 54°
2026-05-07 00:39 47.25111 -104.56368 30991 ft 480 kts 54°
2026-05-07 00:39 47.28015 -104.47511 30985 ft 480 kts 54°
2026-05-07 00:40 47.30910 -104.38644 30997 ft 480 kts 54°
2026-05-07 00:40 47.33801 -104.29761 31004 ft 480 kts 54°
2026-05-07 00:41 47.36684 -104.20875 31044 ft 480 kts 54°
2026-05-07 00:41 47.39563 -104.11970 31005 ft 480 kts 54°
2026-05-07 00:42 47.42416 -104.03111 31008 ft 480 kts 54°
2026-05-07 00:42 47.45281 -103.94187 31002 ft 480 kts 54°
2026-05-07 00:43 47.48135 -103.85268 31052 ft 480 kts 55°
2026-05-07 00:43 47.50985 -103.76330 31013 ft 480 kts 55°
2026-05-07 00:44 47.53826 -103.67382 31005 ft 480 kts 55°
2026-05-07 00:44 47.56657 -103.58436 31005 ft 480 kts 55°
2026-05-07 00:45 47.59482 -103.49480 31060 ft 480 kts 55°
2026-05-07 00:45 47.62304 -103.40506 31012 ft 480 kts 55°
2026-05-07 00:46 47.65120 -103.31513 30999 ft 480 kts 55°
2026-05-07 00:46 47.67906 -103.22582 30997 ft 480 kts 55°
2026-05-07 00:47 47.70704 -103.13587 31001 ft 480 kts 55°
2026-05-07 00:47 47.73497 -103.04574 31011 ft 481 kts 54°
2026-05-07 00:48 47.76286 -102.95537 31005 ft 480 kts 54°
2026-05-07 00:48 47.79063 -102.86510 31000 ft 480 kts 55°
2026-05-07 00:49 47.81834 -102.77468 30992 ft 480 kts 55°
2026-05-07 00:49 47.84597 -102.68421 30999 ft 480 kts 54°
2026-05-07 00:50 47.87339 -102.59413 30996 ft 480 kts 54°
2026-05-07 00:50 47.90085 -102.50353 30987 ft 480 kts 54°
2026-05-07 00:51 47.92824 -102.41285 30988 ft 480 kts 55°
2026-05-07 00:51 47.95560 -102.32194 30989 ft 480 kts 55°
2026-05-07 00:52 47.98290 -102.23090 30990 ft 480 kts 55°
2026-05-07 00:52 48.01011 -102.13981 31005 ft 480 kts 55°
2026-05-07 00:53 48.03730 -102.04846 30990 ft 480 kts 55°
2026-05-07 00:53 48.06416 -101.95786 31056 ft 480 kts 55°
2026-05-07 00:54 48.09115 -101.86649 31007 ft 480 kts 55°
2026-05-07 00:54 48.11806 -101.77504 30996 ft 479 kts 55°
2026-05-07 00:55 48.14482 -101.68378 30993 ft 478 kts 55°
2026-05-07 00:55 48.17150 -101.59249 31057 ft 478 kts 56°
2026-05-07 00:56 48.19803 -101.50138 30990 ft 481 kts 56°
2026-05-07 00:56 48.22472 -101.40929 30977 ft 482 kts 56°
2026-05-07 00:57 48.25218 -101.31788 30965 ft 475 kts 51°
2026-05-07 00:57 48.28758 -101.23611 30997 ft 458 kts 40°
2026-05-07 00:58 48.32855 -101.16361 31034 ft 459 kts 40°
2026-05-07 00:58 48.37049 -101.08974 31009 ft 467 kts 41°
2026-05-07 00:59 48.43272 -100.97831 31013 ft 464 kts 41°
2026-05-07 01:00 48.47414 -100.90368 31011 ft 463 kts 41°
2026-05-07 01:00 48.51542 -100.82913 31053 ft 465 kts 42°
2026-05-07 01:01 48.55704 -100.75387 31021 ft 468 kts 43°
2026-05-07 01:01 48.59875 -100.67818 31023 ft 470 kts 43°
2026-05-07 01:02 48.64054 -100.60206 31013 ft 471 kts 43°
2026-05-07 01:02 48.68228 -100.52582 31012 ft 470 kts 43°
2026-05-07 01:03 48.72372 -100.44993 31023 ft 471 kts 44°
2026-05-07 01:03 48.76549 -100.37326 31017 ft 473 kts 44°
2026-05-07 01:04 48.80732 -100.29623 31020 ft 473 kts 44°
2026-05-07 01:04 48.84919 -100.21890 31021 ft 474 kts 44°
2026-05-07 01:05 48.89102 -100.14139 31020 ft 474 kts 44°
2026-05-07 01:05 48.93256 -100.06427 31021 ft 475 kts 45°
2026-05-07 01:06 48.97443 -99.98625 31022 ft 477 kts 45°
2026-05-07 01:06 49.01643 -99.90776 31019 ft 478 kts 45°
2026-05-07 01:07 49.05848 -99.82895 31019 ft 479 kts 46°
2026-05-07 01:07 49.10062 -99.74973 31015 ft 479 kts 46°
2026-05-07 01:08 49.14238 -99.67100 31023 ft 481 kts 47°
2026-05-07 01:08 49.18450 -99.59137 31018 ft 482 kts 47°
2026-05-07 01:09 49.22660 -99.51150 31013 ft 482 kts 47°
2026-05-07 01:09 49.26865 -99.43151 31008 ft 482 kts 47°
2026-05-07 01:10 49.31036 -99.35192 31022 ft 482 kts 48°
2026-05-07 01:10 49.35236 -99.27154 31017 ft 483 kts 48°
2026-05-07 01:11 49.39439 -99.19087 31016 ft 484 kts 48°
2026-05-07 01:11 49.43642 -99.10994 31014 ft 484 kts 48°
2026-05-07 01:12 49.47131 -99.04256 31013 ft 484 kts 48°
2026-05-07 01:12 49.51313 -98.96158 31028 ft 484 kts 49°
2026-05-07 01:13 49.55498 -98.88030 31018 ft 485 kts 49°
2026-05-07 01:13 49.59687 -98.79869 31013 ft 485 kts 49°
2026-05-07 01:14 49.63870 -98.71693 31013 ft 486 kts 49°
2026-05-07 01:14 49.68022 -98.63553 31019 ft 486 kts 49°
2026-05-07 01:15 49.72194 -98.55348 31019 ft 485 kts 49°
2026-05-07 01:15 49.76355 -98.47140 31027 ft 485 kts 49°
2026-05-07 01:16 49.80510 -98.38918 31026 ft 485 kts 49°
2026-05-07 01:16 49.84655 -98.30690 31027 ft 484 kts 49°
2026-05-07 01:17 49.88798 -98.22440 31036 ft 484 kts 50°
2026-05-07 01:17 49.92930 -98.14187 31044 ft 485 kts 50°
2026-05-07 01:18 49.97065 -98.05902 31039 ft 485 kts 50°
2026-05-07 01:18 50.01103 -97.97601 31032 ft 481 kts 53°
2026-05-07 01:19 50.04890 -97.88950 31041 ft 485 kts 54°
2026-05-07 01:19 50.08644 -97.80184 31040 ft 488 kts 54°
2026-05-07 01:20 50.12431 -97.71355 31040 ft 490 kts 54°
2026-05-07 01:20 50.16202 -97.62583 31030 ft 491 kts 54°
2026-05-07 01:21 50.20000 -97.53737 31032 ft 489 kts 54°
2026-05-07 01:21 50.23777 -97.44911 31036 ft 488 kts 54°
2026-05-07 01:22 50.27537 -97.36095 31034 ft 487 kts 54°
2026-05-07 01:22 50.31282 -97.27281 31039 ft 486 kts 54°
2026-05-07 01:23 50.35018 -97.18461 31039 ft 486 kts 54°
2026-05-07 01:23 50.38725 -97.09677 31045 ft 486 kts 54°
2026-05-07 01:24 50.42455 -97.00812 31047 ft 487 kts 54°
2026-05-07 01:24 50.46180 -96.91926 31060 ft 487 kts 54°
2026-05-07 01:25 50.49902 -96.83017 31060 ft 488 kts 54°
2026-05-07 01:25 50.53621 -96.74086 31055 ft 488 kts 55°
2026-05-07 01:26 50.57338 -96.65129 31060 ft 488 kts 55°
2026-05-07 01:26 50.61047 -96.56159 31064 ft 488 kts 55°
2026-05-07 01:27 50.64720 -96.47249 31071 ft 488 kts 55°
2026-05-07 01:27 50.68411 -96.38264 31062 ft 488 kts 55°
2026-05-07 01:28 50.72099 -96.29253 31068 ft 488 kts 55°
2026-05-07 01:28 50.75778 -96.20234 31060 ft 488 kts 55°
2026-05-07 01:29 50.79449 -96.11203 31054 ft 488 kts 55°
2026-05-07 01:29 50.83094 -96.02204 31061 ft 488 kts 55°
2026-05-07 01:30 50.86752 -95.93144 31054 ft 488 kts 55°
2026-05-07 01:30 50.90402 -95.84071 31054 ft 488 kts 55°
2026-05-07 01:31 50.94046 -95.74979 31049 ft 488 kts 55°
2026-05-07 01:31 50.97686 -95.65868 31056 ft 489 kts 55°
2026-05-07 01:32 51.01319 -95.56742 31041 ft 489 kts 55°
2026-05-07 01:32 51.04948 -95.47593 31035 ft 489 kts 55°
2026-05-07 01:33 51.08565 -95.38442 31038 ft 489 kts 55°
2026-05-07 01:33 51.12159 -95.29316 31029 ft 489 kts 55°
2026-05-07 01:34 51.15764 -95.20130 31042 ft 489 kts 55°
2026-05-07 01:34 51.19368 -95.10915 31029 ft 490 kts 56°
2026-05-07 01:35 51.22963 -95.01690 31040 ft 490 kts 56°
2026-05-07 01:35 51.26553 -94.92443 31028 ft 490 kts 56°
2026-05-07 01:36 51.30135 -94.83185 31021 ft 490 kts 56°
2026-05-07 01:36 51.33710 -94.73912 31035 ft 490 kts 56°
2026-05-07 01:37 51.37279 -94.64621 31023 ft 490 kts 56°
2026-05-07 01:37 51.40843 -94.55309 31017 ft 490 kts 56°
2026-05-07 01:38 51.44377 -94.46041 31018 ft 490 kts 56°
2026-05-07 01:38 51.47923 -94.36709 31016 ft 490 kts 56°
2026-05-07 01:39 51.51472 -94.27335 31027 ft 491 kts 56°
2026-05-07 01:39 51.55013 -94.17948 31019 ft 491 kts 56°
2026-05-07 01:40 51.58546 -94.08546 31009 ft 491 kts 56°
2026-05-07 01:40 51.62046 -93.99196 31010 ft 487 kts 56°
2026-05-07 01:41 51.65492 -93.89951 31003 ft 477 kts 56°
2026-05-07 01:41 51.68871 -93.80861 30993 ft 470 kts 56°
2026-05-07 01:42 51.72204 -93.71868 30993 ft 464 kts 56°
2026-05-07 01:42 51.75468 -93.63028 31013 ft 459 kts 56°
2026-05-07 01:43 51.78711 -93.54213 30995 ft 455 kts 56°
2026-05-07 01:43 51.81920 -93.45460 30994 ft 451 kts 56°
2026-05-07 01:44 51.85102 -93.36748 31001 ft 448 kts 57°
2026-05-07 01:44 51.88257 -93.28081 30991 ft 446 kts 57°
2026-05-07 01:45 51.91389 -93.19448 30990 ft 443 kts 57°
2026-05-07 01:45 51.94495 -93.10858 30992 ft 441 kts 57°
2026-05-07 01:46 51.97585 -93.02285 30995 ft 439 kts 57°
2026-05-07 01:46 52.00640 -92.93778 30993 ft 438 kts 57°
2026-05-07 01:47 52.03713 -92.85193 31002 ft 437 kts 57°
2026-05-07 01:47 52.06737 -92.76716 30994 ft 436 kts 57°
2026-05-07 01:48 52.09769 -92.68189 30995 ft 434 kts 57°
2026-05-07 01:48 52.12780 -92.59688 30996 ft 433 kts 57°
2026-05-07 01:49 52.15779 -92.51195 30997 ft 432 kts 57°
2026-05-07 01:49 52.18766 -92.42709 31001 ft 431 kts 58°
2026-05-07 01:50 52.21744 -92.34220 30993 ft 431 kts 58°
2026-05-07 01:50 52.24694 -92.25777 30997 ft 430 kts 58°
2026-05-07 01:51 52.27667 -92.17241 31004 ft 430 kts 58°
2026-05-07 01:51 52.30598 -92.08801 30995 ft 429 kts 58°
2026-05-07 01:52 52.33538 -92.00305 30997 ft 429 kts 58°
2026-05-07 01:52 52.36464 -91.91820 30992 ft 428 kts 59°
2026-05-07 01:53 52.39388 -91.83312 30994 ft 428 kts 59°
2026-05-07 01:53 52.42298 -91.74814 30992 ft 427 kts 59°
2026-05-07 01:54 52.45199 -91.66316 30994 ft 427 kts 59°
2026-05-07 01:54 52.48075 -91.57861 30983 ft 427 kts 59°
2026-05-07 01:55 52.50959 -91.49351 30990 ft 426 kts 59°
2026-05-07 01:55 52.53839 -91.40826 30992 ft 426 kts 60°
2026-05-07 01:56 52.56711 -91.32297 30978 ft 426 kts 60°
2026-05-07 01:56 52.59574 -91.23763 30977 ft 426 kts 60°
2026-05-07 01:57 52.62430 -91.15224 30970 ft 426 kts 60°
2026-05-07 01:57 52.65277 -91.06679 30973 ft 425 kts 60°
2026-05-07 01:58 52.68101 -90.98175 30966 ft 425 kts 60°
2026-05-07 01:58 52.70935 -90.89611 30967 ft 425 kts 60°
2026-05-07 01:59 52.73762 -90.81038 30967 ft 425 kts 60°
2026-05-07 01:59 52.76584 -90.72449 30970 ft 425 kts 60°
2026-05-07 02:00 52.79395 -90.63862 30966 ft 425 kts 61°
2026-05-07 02:00 52.82198 -90.55273 30961 ft 425 kts 61°
2026-05-07 02:01 52.84979 -90.46724 30958 ft 424 kts 61°
2026-05-07 02:01 52.87769 -90.38115 30953 ft 424 kts 61°
2026-05-07 02:02 52.90555 -90.29485 30953 ft 424 kts 61°
2026-05-07 02:02 52.92862 -90.22317 30953 ft 424 kts 61°
2026-05-07 02:03 52.95635 -90.13673 30951 ft 424 kts 61°
2026-05-07 02:03 52.98401 -90.05022 30951 ft 424 kts 61°
2026-05-07 02:04 53.01172 -89.96386 30952 ft 424 kts 60°
2026-05-07 02:04 53.04011 -89.87809 30947 ft 424 kts 60°
2026-05-07 02:05 53.06859 -89.79233 30947 ft 424 kts 60°
2026-05-07 02:05 53.09675 -89.70695 30945 ft 423 kts 60°
2026-05-07 02:06 53.12499 -89.62085 30942 ft 423 kts 61°
2026-05-07 02:06 53.15310 -89.53473 30940 ft 423 kts 61°
2026-05-07 02:07 53.18116 -89.44846 30944 ft 423 kts 61°
2026-05-07 02:07 53.22312 -89.31889 30940 ft 423 kts 61°
2026-05-07 02:08 53.25084 -89.23293 30939 ft 423 kts 61°
2026-05-07 02:08 53.27867 -89.14627 30938 ft 423 kts 61°
2026-05-07 02:09 53.30646 -89.05947 30937 ft 423 kts 61°
2026-05-07 02:09 53.33413 -88.97273 30922 ft 423 kts 61°
2026-05-07 02:10 53.36159 -88.88639 30932 ft 422 kts 62°
2026-05-07 02:10 53.38913 -88.79943 30932 ft 422 kts 62°
2026-05-07 02:11 53.41661 -88.71235 30927 ft 422 kts 62°
2026-05-07 02:11 53.44400 -88.62524 30927 ft 422 kts 62°
2026-05-07 02:12 53.47118 -88.53850 30922 ft 422 kts 62°
2026-05-07 02:12 53.49844 -88.45118 30920 ft 422 kts 62°
2026-05-07 02:13 53.52566 -88.36366 30918 ft 422 kts 62°
2026-05-07 02:13 53.55283 -88.27601 30919 ft 422 kts 62°
2026-05-07 02:14 53.57988 -88.18841 30915 ft 422 kts 62°
2026-05-07 02:14 53.60688 -88.10069 30912 ft 422 kts 62°
2026-05-07 02:15 53.63368 -88.01324 30909 ft 422 kts 62°
2026-05-07 02:15 53.66055 -87.92529 30910 ft 422 kts 63°
2026-05-07 02:16 53.68737 -87.83717 30908 ft 422 kts 63°
2026-05-07 02:16 53.71414 -87.74887 30907 ft 422 kts 63°
2026-05-07 02:17 53.74077 -87.66069 30907 ft 422 kts 63°
2026-05-07 02:17 53.76738 -87.57228 30898 ft 422 kts 63°
2026-05-07 02:18 53.79389 -87.48389 30894 ft 421 kts 63°
2026-05-07 02:18 53.82017 -87.39592 30891 ft 421 kts 63°
2026-05-07 02:19 53.84656 -87.30726 30889 ft 421 kts 64°
2026-05-07 02:19 53.87283 -87.21867 30884 ft 421 kts 63°
2026-05-07 02:20 53.89904 -87.12996 30888 ft 421 kts 64°
2026-05-07 02:20 53.92515 -87.04122 30882 ft 421 kts 64°
2026-05-07 02:21 53.95125 -86.95223 30882 ft 421 kts 64°
2026-05-07 02:21 53.97721 -86.86332 30884 ft 420 kts 64°
2026-05-07 02:22 54.00295 -86.77486 30873 ft 419 kts 64°
2026-05-07 02:22 54.02874 -86.68590 30876 ft 419 kts 64°
2026-05-07 02:23 54.05444 -86.59694 30871 ft 419 kts 64°
2026-05-07 02:23 54.08022 -86.50737 30909 ft 423 kts 64°
2026-05-07 02:24 54.10617 -86.41678 30961 ft 427 kts 65°
2026-05-07 02:24 54.13228 -86.32529 30993 ft 431 kts 65°
2026-05-07 02:25 54.15852 -86.23304 31056 ft 433 kts 64°
2026-05-07 02:25 54.18480 -86.14026 31115 ft 435 kts 65°
2026-05-07 02:26 54.21100 -86.04743 31202 ft 436 kts 64°
2026-05-07 02:26 54.23730 -85.95384 31306 ft 437 kts 64°
2026-05-07 02:27 54.26358 -85.85991 31384 ft 438 kts 64°
2026-05-07 02:27 54.28989 -85.76552 31457 ft 439 kts 64°
2026-05-07 02:28 54.31614 -85.67097 31547 ft 439 kts 64°
2026-05-07 02:28 54.34233 -85.57627 31666 ft 439 kts 64°
2026-05-07 02:29 54.36825 -85.48210 31764 ft 439 kts 64°
2026-05-07 02:29 54.39427 -85.38724 31889 ft 439 kts 64°
2026-05-07 02:30 54.42013 -85.29252 32018 ft 438 kts 64°
2026-05-07 02:30 54.44589 -85.19778 32117 ft 438 kts 64°
2026-05-07 02:31 54.47154 -85.10304 32072 ft 441 kts 64°
2026-05-07 02:31 54.49736 -85.00737 32175 ft 441 kts 64°
2026-05-07 02:32 54.52303 -84.91176 32308 ft 439 kts 64°
2026-05-07 02:32 54.54867 -84.81585 32295 ft 442 kts 64°
2026-05-07 02:33 54.57432 -84.71957 32320 ft 442 kts 64°
2026-05-07 02:33 54.59993 -84.62301 32387 ft 442 kts 64°
2026-05-07 02:34 54.62530 -84.52688 32404 ft 443 kts 65°
2026-05-07 02:34 54.65081 -84.42984 32417 ft 444 kts 65°
2026-05-07 02:35 54.67632 -84.33239 32440 ft 445 kts 65°
2026-05-07 02:35 54.70181 -84.23458 32451 ft 446 kts 65°
2026-05-07 02:36 54.72725 -84.13656 32442 ft 447 kts 65°
2026-05-07 02:36 54.75265 -84.03826 32448 ft 448 kts 65°
2026-05-07 02:37 54.77804 -83.93957 32454 ft 448 kts 65°
2026-05-07 02:37 54.80332 -83.84089 32456 ft 449 kts 65°
2026-05-07 02:38 54.82840 -83.74253 32465 ft 449 kts 65°
2026-05-07 02:38 54.85362 -83.64324 32487 ft 449 kts 64°
2026-05-07 02:39 54.86616 -83.59375 32592 ft 447 kts 65°
2026-05-07 02:39 54.87865 -83.54427 32654 ft 445 kts 65°
2026-05-07 02:39 54.90329 -83.44633 32761 ft 439 kts 65°
2026-05-07 02:40 54.92759 -83.34935 32798 ft 436 kts 65°
2026-05-07 02:40 54.95153 -83.25338 32800 ft 433 kts 65°
2026-05-07 02:41 54.97538 -83.15734 32787 ft 431 kts 65°
2026-05-07 02:41 54.99902 -83.06170 32783 ft 429 kts 65°
2026-05-07 02:42 55.02249 -82.96639 32785 ft 427 kts 65°
2026-05-07 02:42 55.04576 -82.87139 32782 ft 425 kts 65°
2026-05-07 02:43 55.06891 -82.77663 32776 ft 424 kts 65°
2026-05-07 02:43 55.09188 -82.68217 32780 ft 422 kts 65°
2026-05-07 02:44 55.11468 -82.58791 32782 ft 420 kts 65°
2026-05-07 02:44 55.13720 -82.49442 32770 ft 419 kts 65°
2026-05-07 02:45 55.15974 -82.40042 32752 ft 418 kts 65°
2026-05-07 02:45 55.18209 -82.30686 32760 ft 416 kts 65°
2026-05-07 02:46 55.20431 -82.21340 32770 ft 414 kts 66°
2026-05-07 02:46 55.22637 -82.12024 32757 ft 413 kts 65°
2026-05-07 02:47 55.24830 -82.02723 32741 ft 412 kts 66°
2026-05-07 02:47 55.27011 -81.93431 32735 ft 412 kts 65°
2026-05-07 02:48 55.29167 -81.84209 32720 ft 411 kts 65°
2026-05-07 02:48 55.31329 -81.74922 32698 ft 410 kts 66°
2026-05-07 02:49 55.33470 -81.65674 32711 ft 408 kts 66°
2026-05-07 02:49 55.35606 -81.56418 32658 ft 408 kts 66°
2026-05-07 02:50 55.37732 -81.47161 32656 ft 407 kts 66°
2026-05-07 02:50 55.39489 -81.39481 32644 ft 406 kts 65°
2026-05-07 02:51 55.41595 -81.30235 32566 ft 407 kts 66°
2026-05-07 02:51 55.43696 -81.20975 32582 ft 406 kts 66°
2026-05-07 02:52 55.45769 -81.11794 32498 ft 407 kts 67°
2026-05-07 02:52 55.47851 -81.02539 32493 ft 406 kts 66°
2026-05-07 02:53 55.49919 -80.93301 32521 ft 404 kts 66°
2026-05-07 02:53 55.51986 -80.84034 32447 ft 405 kts 67°
2026-05-07 02:54 55.54038 -80.74785 32476 ft 404 kts 67°
2026-05-07 02:54 55.56086 -80.65512 32393 ft 405 kts 67°
2026-05-07 02:55 55.58128 -80.56229 32387 ft 405 kts 67°
2026-05-07 02:55 55.60144 -80.47016 32382 ft 404 kts 68°
2026-05-07 02:56 55.62169 -80.37733 32319 ft 405 kts 68°
2026-05-07 02:56 55.64184 -80.28448 32325 ft 404 kts 67°
2026-05-07 02:57 55.66189 -80.19167 32373 ft 402 kts 68°
2026-05-07 02:57 55.67187 -80.14526 32256 ft 405 kts 67°
2026-05-07 02:57 55.68193 -80.09856 32309 ft 403 kts 68°
2026-05-07 02:58 55.70184 -80.00582 32300 ft 403 kts 66°
2026-05-07 02:58 55.72591 -79.91673 32237 ft 402 kts 60°
2026-05-07 02:59 55.75147 -79.82845 32241 ft 402 kts 61°
2026-05-07 02:59 55.77686 -79.74003 32259 ft 401 kts 62°
2026-05-07 03:00 55.80194 -79.65162 32234 ft 401 kts 61°
2026-05-07 03:00 55.82695 -79.56286 32246 ft 400 kts 62°
2026-05-07 03:01 55.85162 -79.47482 32218 ft 401 kts 62°
2026-05-07 03:01 55.87645 -79.38589 32242 ft 400 kts 62°
2026-05-07 03:02 55.90116 -79.29704 32233 ft 399 kts 62°
2026-05-07 03:02 55.92577 -79.20815 32214 ft 400 kts 62°
2026-05-07 03:03 55.95041 -79.11895 32141 ft 401 kts 62°
2026-05-07 03:03 55.97477 -79.03030 32179 ft 400 kts 63°
2026-05-07 03:04 55.99926 -78.94086 32133 ft 400 kts 62°
2026-05-07 03:04 56.02363 -78.85153 32169 ft 399 kts 62°
2026-05-07 03:05 56.04796 -78.76198 32130 ft 400 kts 63°
2026-05-07 03:05 56.07221 -78.67239 32156 ft 399 kts 63°
2026-05-07 03:06 56.09635 -78.58280 32152 ft 399 kts 63°
2026-05-07 03:06 56.12036 -78.49337 32089 ft 401 kts 63°
2026-05-07 03:07 56.14451 -78.40311 32103 ft 400 kts 63°
2026-05-07 03:07 56.16848 -78.31311 32112 ft 400 kts 63°
2026-05-07 03:08 56.19251 -78.22259 32088 ft 400 kts 63°
2026-05-07 03:08 56.21633 -78.13244 32092 ft 400 kts 64°
2026-05-07 03:09 56.24013 -78.04201 32077 ft 400 kts 63°
2026-05-07 03:09 56.26392 -77.95129 32084 ft 400 kts 64°
2026-05-07 03:10 56.28741 -77.86128 32103 ft 400 kts 64°
2026-05-07 03:10 56.31102 -77.77050 32079 ft 400 kts 64°
2026-05-07 03:11 56.33453 -77.67970 32106 ft 400 kts 64°
2026-05-07 03:11 56.35801 -77.58869 32068 ft 400 kts 64°
2026-05-07 03:12 56.38141 -77.49762 32081 ft 400 kts 64°
2026-05-07 03:12 56.40479 -77.40626 32097 ft 399 kts 64°
2026-05-07 03:13 56.42790 -77.31553 32057 ft 401 kts 64°
2026-05-07 03:13 56.45111 -77.22412 32077 ft 400 kts 64°
2026-05-07 03:14 56.47422 -77.13265 32080 ft 400 kts 65°
2026-05-07 03:15 56.50883 -76.99499 32076 ft 400 kts 65°
2026-05-07 03:15 56.53177 -76.90323 32083 ft 400 kts 65°
2026-05-07 03:16 56.55468 -76.81126 32036 ft 401 kts 65°
2026-05-07 03:16 56.57751 -76.71924 32084 ft 399 kts 65°
2026-05-07 03:17 56.60024 -76.62719 32069 ft 401 kts 65°
2026-05-07 03:17 56.62287 -76.53524 32074 ft 400 kts 65°
2026-05-07 03:18 56.64547 -76.44291 32100 ft 400 kts 66°
2026-05-07 03:18 56.66804 -76.35040 32089 ft 401 kts 66°
2026-05-07 03:19 56.69056 -76.25772 32109 ft 400 kts 66°
2026-05-07 03:19 56.71295 -76.16508 32123 ft 400 kts 66°
2026-05-07 03:20 56.73533 -76.07214 32099 ft 401 kts 66°
2026-05-07 03:20 56.75752 -75.97965 32111 ft 400 kts 66°
2026-05-07 03:21 56.77971 -75.88665 32107 ft 401 kts 66°
2026-05-07 03:21 56.80188 -75.79341 32162 ft 399 kts 66°
2026-05-07 03:22 56.82384 -75.70057 32169 ft 399 kts 66°
2026-05-07 03:22 56.84584 -75.60729 32196 ft 398 kts 67°
2026-05-07 03:23 56.86753 -75.51482 32193 ft 399 kts 67°
2026-05-07 03:23 56.88934 -75.42152 32220 ft 398 kts 67°
2026-05-07 03:24 56.91100 -75.32839 32214 ft 398 kts 67°
2026-05-07 03:24 56.93266 -75.23488 32197 ft 399 kts 67°
2026-05-07 03:25 56.95422 -75.14142 32206 ft 398 kts 67°
2026-05-07 03:25 56.97575 -75.04768 32180 ft 399 kts 67°
2026-05-07 03:26 56.99719 -74.95385 32214 ft 398 kts 68°
2026-05-07 03:26 57.01841 -74.86061 32227 ft 398 kts 68°
2026-05-07 03:27 57.03965 -74.76681 32246 ft 398 kts 68°
2026-05-07 03:27 57.06087 -74.67279 32251 ft 398 kts 68°
2026-05-07 03:28 57.08197 -74.57878 32238 ft 398 kts 68°
2026-05-07 03:28 57.10301 -74.48470 32248 ft 398 kts 68°
2026-05-07 03:29 57.12400 -74.39038 32212 ft 399 kts 68°
2026-05-07 03:29 57.14496 -74.29578 32237 ft 398 kts 68°
2026-05-07 03:30 57.16584 -74.20109 32224 ft 399 kts 68°
2026-05-07 03:30 57.18666 -74.10630 32245 ft 398 kts 69°
2026-05-07 03:31 57.20720 -74.01229 32284 ft 398 kts 69°
2026-05-07 03:31 57.22783 -73.91746 32273 ft 398 kts 69°
2026-05-07 03:32 57.24840 -73.82246 32283 ft 398 kts 69°
2026-05-07 03:32 57.26891 -73.72736 32260 ft 398 kts 69°
2026-05-07 03:33 57.28938 -73.63197 32243 ft 399 kts 69°
2026-05-07 03:33 57.30975 -73.53654 32267 ft 399 kts 69°
2026-05-07 03:34 57.33007 -73.44098 32270 ft 399 kts 69°
2026-05-07 03:34 57.35017 -73.34599 32274 ft 399 kts 69°
2026-05-07 03:35 57.37034 -73.25023 32294 ft 399 kts 70°
2026-05-07 03:35 57.39041 -73.15446 32302 ft 399 kts 70°
2026-05-07 03:36 57.41045 -73.05839 32298 ft 399 kts 70°
2026-05-07 03:36 57.43040 -72.96233 32284 ft 399 kts 70°
2026-05-07 03:37 57.45029 -72.86608 32278 ft 399 kts 70°
2026-05-07 03:37 57.47010 -72.76977 32285 ft 399 kts 70°
2026-05-07 03:38 57.48983 -72.67339 32294 ft 399 kts 70°
2026-05-07 03:38 57.50936 -72.57749 32302 ft 399 kts 70°
2026-05-07 03:39 57.52896 -72.48080 32305 ft 399 kts 70°
2026-05-07 03:39 57.54522 -72.40023 32330 ft 399 kts 71°
2026-05-07 03:40 57.56470 -72.30332 32329 ft 399 kts 71°
2026-05-07 03:40 57.58414 -72.20608 32258 ft 401 kts 71°
2026-05-07 03:41 57.60351 -72.10876 32309 ft 400 kts 71°
2026-05-07 03:41 57.62265 -72.01203 32288 ft 400 kts 71°
2026-05-07 03:42 57.64188 -71.91444 32313 ft 400 kts 71°
2026-05-07 03:42 57.66101 -71.81686 32318 ft 400 kts 71°
2026-05-07 03:43 57.68006 -71.71916 32334 ft 400 kts 71°
2026-05-07 03:43 57.69905 -71.62132 32331 ft 400 kts 71°
2026-05-07 03:44 57.71795 -71.52347 32363 ft 399 kts 71°
2026-05-07 03:44 57.73679 -71.42540 32311 ft 401 kts 71°
2026-05-07 03:45 57.75556 -71.32721 32350 ft 400 kts 71°
2026-05-07 03:45 57.77414 -71.22951 32333 ft 401 kts 71°
2026-05-07 03:46 57.79275 -71.13117 32354 ft 400 kts 72°
2026-05-07 03:46 57.81131 -71.03260 32352 ft 401 kts 72°
2026-05-07 03:47 57.82977 -70.93401 32355 ft 400 kts 72°
2026-05-07 03:47 57.84817 -70.83525 32360 ft 400 kts 72°
2026-05-07 03:48 57.86647 -70.73654 32419 ft 399 kts 72°
2026-05-07 03:48 57.88464 -70.63795 32430 ft 400 kts 72°
2026-05-07 03:49 57.90267 -70.53975 32432 ft 399 kts 72°
2026-05-07 03:49 57.92068 -70.44100 32437 ft 399 kts 72°
2026-05-07 03:50 57.93867 -70.34189 32446 ft 399 kts 72°
2026-05-07 03:50 57.95655 -70.24289 32447 ft 399 kts 72°
2026-05-07 03:51 57.97434 -70.14386 32455 ft 399 kts 72°
2026-05-07 03:51 57.99207 -70.04466 32463 ft 399 kts 72°
2026-05-07 03:52 58.01263 -69.94681 32342 ft 403 kts 65°
2026-05-07 03:52 58.03667 -69.85171 32524 ft 399 kts 65°
2026-05-07 03:53 58.06062 -69.75686 32427 ft 402 kts 65°
2026-05-07 03:53 58.08427 -69.66217 32509 ft 400 kts 65°
2026-05-07 03:54 58.10789 -69.56669 32471 ft 401 kts 66°
2026-05-07 03:54 58.13141 -69.47113 32506 ft 400 kts 66°
2026-05-07 03:55 58.15485 -69.37538 32486 ft 401 kts 66°
2026-05-07 03:55 58.17808 -69.28013 32507 ft 400 kts 66°
2026-05-07 03:56 58.20137 -69.18417 32511 ft 400 kts 66°
2026-05-07 03:56 58.22461 -69.08803 32498 ft 401 kts 66°
2026-05-07 03:57 58.24778 -68.99176 32517 ft 400 kts 66°
2026-05-07 03:57 58.27088 -68.89535 32514 ft 401 kts 66°
2026-05-07 03:58 58.29389 -68.79886 32521 ft 401 kts 66°
2026-05-07 03:58 58.31673 -68.70268 32534 ft 401 kts 66°
2026-05-07 03:59 58.33960 -68.60593 32540 ft 401 kts 66°
2026-05-07 03:59 58.36240 -68.50903 32551 ft 401 kts 66°
2026-05-07 04:00 58.38506 -68.41229 32611 ft 399 kts 66°
2026-05-07 04:00 58.40774 -68.31508 32468 ft 403 kts 66°
2026-05-07 04:01 58.43041 -68.21750 32573 ft 401 kts 66°
2026-05-07 04:01 58.45295 -68.11989 32509 ft 403 kts 66°
2026-05-07 04:02 58.47545 -68.02210 32579 ft 401 kts 67°
2026-05-07 04:02 58.49773 -67.92481 32541 ft 402 kts 67°
2026-05-07 04:03 58.52008 -67.82676 32578 ft 402 kts 67°
2026-05-07 04:03 58.54235 -67.72865 32604 ft 401 kts 67°
2026-05-07 04:04 58.56449 -67.63056 32605 ft 401 kts 67°
2026-05-07 04:04 58.58656 -67.53244 32603 ft 401 kts 68°
2026-05-07 04:05 58.60863 -67.43380 32517 ft 403 kts 68°
2026-05-07 04:05 58.63062 -67.33506 32589 ft 402 kts 68°
2026-05-07 04:06 58.65243 -67.23666 32568 ft 403 kts 68°
2026-05-07 04:06 58.67428 -67.13761 32595 ft 402 kts 68°
2026-05-07 04:07 58.69606 -67.03846 32604 ft 402 kts 68°
2026-05-07 04:07 58.71769 -66.93938 32640 ft 402 kts 68°
2026-05-07 04:08 58.73928 -66.84013 32648 ft 401 kts 68°
2026-05-07 04:08 58.76066 -66.74140 32651 ft 401 kts 68°
2026-05-07 04:09 58.78212 -66.64179 32611 ft 403 kts 69°
2026-05-07 04:09 58.80360 -66.54170 32589 ft 403 kts 69°
2026-05-07 04:10 58.82492 -66.44171 32615 ft 403 kts 69°
2026-05-07 04:10 58.84623 -66.34137 32609 ft 403 kts 69°
2026-05-07 04:11 58.86737 -66.24126 32658 ft 402 kts 69°
2026-05-07 04:11 58.88841 -66.14113 32659 ft 402 kts 69°
2026-05-07 04:12 58.90941 -66.04083 32663 ft 402 kts 69°
2026-05-07 04:12 58.93022 -65.94090 32669 ft 402 kts 69°
2026-05-07 04:13 58.95107 -65.84023 32668 ft 403 kts 69°
2026-05-07 04:13 58.97187 -65.73937 32620 ft 404 kts 70°
2026-05-07 04:14 58.99267 -65.63808 32642 ft 403 kts 70°
2026-05-07 04:14 59.01331 -65.53687 32650 ft 404 kts 70°
2026-05-07 04:15 59.03374 -65.43611 32664 ft 404 kts 70°
2026-05-07 04:15 59.05426 -65.33455 32682 ft 404 kts 70°
2026-05-07 04:16 59.07473 -65.23280 32693 ft 404 kts 70°
2026-05-07 04:16 59.09515 -65.13070 32675 ft 405 kts 70°
2026-05-07 04:17 59.11547 -65.02857 32690 ft 405 kts 70°
2026-05-07 04:17 59.13563 -64.92674 32688 ft 405 kts 70°
2026-05-07 04:18 59.15585 -64.82424 32686 ft 405 kts 71°
2026-05-07 04:18 59.17595 -64.72165 32691 ft 405 kts 71°
2026-05-07 04:19 59.19601 -64.61864 32693 ft 406 kts 71°
2026-05-07 04:19 59.21602 -64.51538 32691 ft 407 kts 71°
2026-05-07 04:20 59.23595 -64.41203 32695 ft 407 kts 71°
2026-05-07 04:20 59.25586 -64.30837 32691 ft 408 kts 71°
2026-05-07 04:21 59.28551 -64.15234 32694 ft 408 kts 71°
2026-05-07 04:21 59.30512 -64.04795 32695 ft 409 kts 71°
2026-05-07 04:22 59.32470 -63.94328 32680 ft 409 kts 72°
2026-05-07 04:22 59.34404 -63.83931 32686 ft 409 kts 72°
2026-05-07 04:23 59.36347 -63.73434 32699 ft 408 kts 72°
2026-05-07 04:23 59.38277 -63.62953 32694 ft 409 kts 72°
2026-05-07 04:24 59.40201 -63.52442 32693 ft 410 kts 72°
2026-05-07 04:24 59.41797 -63.43672 32694 ft 410 kts 72°
2026-05-07 04:25 59.44023 -63.31386 32693 ft 411 kts 73°
2026-05-07 04:25 59.45619 -63.22521 32698 ft 411 kts 73°
2026-05-07 04:26 59.47826 -63.10187 32693 ft 412 kts 73°
2026-05-07 04:26 59.49403 -63.01342 32697 ft 411 kts 73°
2026-05-07 04:27 59.51293 -62.90680 32699 ft 412 kts 73°
2026-05-07 04:27 59.53174 -62.80007 32704 ft 412 kts 73°
2026-05-07 04:28 59.55047 -62.69312 32704 ft 413 kts 73°
2026-05-07 04:28 59.56914 -62.58589 32702 ft 414 kts 73°
2026-05-07 04:29 59.58779 -62.47816 32702 ft 414 kts 74°
2026-05-07 04:29 59.60621 -62.37115 32712 ft 415 kts 74°
2026-05-07 04:30 59.62471 -62.26297 32712 ft 415 kts 74°
2026-05-07 04:30 59.64312 -62.15476 32713 ft 416 kts 74°
2026-05-07 04:31 59.66148 -62.04622 32714 ft 416 kts 74°
2026-05-07 04:31 59.67978 -61.93738 32717 ft 417 kts 74°
2026-05-07 04:32 59.69800 -61.82829 32720 ft 418 kts 74°
2026-05-07 04:32 59.71619 -61.71888 32715 ft 418 kts 75°
2026-05-07 04:33 59.73354 -61.60884 32719 ft 417 kts 80°
2026-05-07 04:33 59.74318 -61.49605 32723 ft 415 kts 85°
2026-05-07 04:34 59.75152 -61.38271 32725 ft 415 kts 85°
2026-05-07 04:34 59.75992 -61.26999 32694 ft 416 kts 85°
2026-05-07 04:35 59.76846 -61.15661 32722 ft 416 kts 85°
2026-05-07 04:35 59.77696 -61.04296 32734 ft 416 kts 85°
2026-05-07 04:36 59.78537 -60.92919 32734 ft 417 kts 85°
2026-05-07 04:36 59.79369 -60.81515 32728 ft 417 kts 85°
2026-05-07 04:37 59.80189 -60.70145 32730 ft 418 kts 85°
2026-05-07 04:37 59.81004 -60.58701 32738 ft 418 kts 85°
2026-05-07 04:38 59.81809 -60.47240 32743 ft 419 kts 85°
2026-05-07 04:38 59.82607 -60.35776 32735 ft 419 kts 86°
2026-05-07 04:39 59.83394 -60.24304 32738 ft 419 kts 86°
2026-05-07 04:39 59.84167 -60.12864 32738 ft 420 kts 86°
2026-05-07 04:40 59.84935 -60.01340 32737 ft 420 kts 86°
2026-05-07 04:40 59.85694 -59.89808 32738 ft 421 kts 86°
2026-05-07 04:41 59.86444 -59.78251 32738 ft 421 kts 86°
2026-05-07 04:41 59.87185 -59.66672 32738 ft 422 kts 86°
2026-05-07 04:42 59.87920 -59.55074 32739 ft 422 kts 87°
2026-05-07 04:42 59.88637 -59.43530 32746 ft 422 kts 87°
2026-05-07 04:43 59.89347 -59.31916 32742 ft 422 kts 87°
2026-05-07 04:43 59.90049 -59.20277 32732 ft 424 kts 87°
2026-05-07 04:44 59.90396 -59.14374 32479 ft 433 kts 87°
2026-05-07 04:44 59.90751 -59.08368 32353 ft 439 kts 87°
2026-05-07 04:44 59.91459 -58.96242 32420 ft 442 kts 87°
2026-05-07 04:45 59.92161 -58.84082 32453 ft 446 kts 87°
2026-05-07 04:45 59.92864 -58.71745 32426 ft 450 kts 88°
2026-05-07 04:46 59.93558 -58.59315 32460 ft 453 kts 88°
2026-05-07 04:46 59.94243 -58.46794 32483 ft 455 kts 88°
2026-05-07 04:47 59.94919 -58.34200 32516 ft 457 kts 88°
2026-05-07 04:47 59.95589 -58.21546 32542 ft 459 kts 88°
2026-05-07 04:48 59.96250 -58.08842 32559 ft 461 kts 88°
2026-05-07 04:48 59.97272 -57.96137 32576 ft 468 kts 78°
2026-05-07 04:49 59.99270 -57.83675 32544 ft 472 kts 75°
2026-05-07 04:49 60.01347 -57.71195 32558 ft 474 kts 76°
2026-05-07 04:50 60.03394 -57.58653 32568 ft 475 kts 76°
2026-05-07 04:50 60.05410 -57.46061 32595 ft 475 kts 76°
2026-05-07 04:51 60.07401 -57.33495 32606 ft 476 kts 76°
2026-05-07 04:51 60.09395 -57.20823 32612 ft 477 kts 76°
2026-05-07 04:52 60.11382 -57.08104 32630 ft 477 kts 77°
2026-05-07 04:52 60.13342 -56.95470 32637 ft 478 kts 77°
2026-05-07 04:53 60.15309 -56.82699 32575 ft 479 kts 77°
2026-05-07 04:53 60.17271 -56.69866 32592 ft 480 kts 77°
2026-05-07 04:54 60.19217 -56.57019 32600 ft 481 kts 77°
2026-05-07 04:54 60.21154 -56.44152 32613 ft 481 kts 77°
2026-05-07 04:55 60.23072 -56.31313 32623 ft 482 kts 78°
2026-05-07 04:55 60.24992 -56.18361 32633 ft 482 kts 78°
2026-05-07 04:56 60.26898 -56.05405 32646 ft 483 kts 78°
2026-05-07 04:56 60.28793 -55.92422 32651 ft 483 kts 78°
2026-05-07 04:57 60.30678 -55.79405 32599 ft 484 kts 78°
2026-05-07 04:57 60.32557 -55.66335 32612 ft 485 kts 78°
2026-05-07 04:58 60.34412 -55.53310 32622 ft 486 kts 79°
2026-05-07 04:58 60.36269 -55.40169 32650 ft 487 kts 79°
2026-05-07 04:59 60.38116 -55.26991 32652 ft 488 kts 79°
2026-05-07 04:59 60.39954 -55.13773 32662 ft 488 kts 79°
2026-05-07 05:00 60.41780 -55.00539 32677 ft 488 kts 79°
2026-05-07 05:00 60.43578 -54.87395 32688 ft 488 kts 79°
2026-05-07 05:01 60.45380 -54.74118 32618 ft 489 kts 79°
2026-05-07 05:01 60.47173 -54.60794 32637 ft 490 kts 80°
2026-05-07 05:02 60.48953 -54.47433 32656 ft 491 kts 80°
2026-05-07 05:02 60.50726 -54.34020 32650 ft 492 kts 80°
2026-05-07 05:03 60.52473 -54.20681 32662 ft 492 kts 80°
2026-05-07 05:03 60.54222 -54.07225 32682 ft 493 kts 80°
2026-05-07 05:04 60.55957 -53.93750 32688 ft 493 kts 81°
2026-05-07 05:04 60.57681 -53.80248 32704 ft 493 kts 81°
2026-05-07 05:05 60.59394 -53.66711 32643 ft 494 kts 81°
2026-05-07 05:05 60.61097 -53.53131 32647 ft 495 kts 81°
2026-05-07 05:06 60.62784 -53.39530 32661 ft 496 kts 81°
2026-05-07 05:06 60.64449 -53.25996 32664 ft 496 kts 81°
2026-05-07 05:07 60.66115 -53.12335 32677 ft 496 kts 81°
2026-05-07 05:07 60.67769 -52.98640 32697 ft 497 kts 81°
2026-05-07 05:08 60.69407 -52.84947 32724 ft 497 kts 81°
2026-05-07 05:08 60.71032 -52.71235 32721 ft 496 kts 81°
2026-05-07 05:09 60.72641 -52.57510 32736 ft 496 kts 81°
2026-05-07 05:09 60.74234 -52.43808 32750 ft 496 kts 81°
2026-05-07 05:10 60.75805 -52.30162 32753 ft 495 kts 82°
2026-05-07 05:10 60.77369 -52.16444 32772 ft 495 kts 82°
2026-05-07 05:11 60.78919 -52.02698 32786 ft 495 kts 82°
2026-05-07 05:11 60.80455 -51.88945 32789 ft 494 kts 82°
2026-05-07 05:12 60.81972 -51.75214 32804 ft 494 kts 82°
2026-05-07 05:12 60.83222 -51.63808 32802 ft 493 kts 82°
2026-05-07 05:13 60.84955 -51.47830 32763 ft 494 kts 82°
2026-05-07 05:13 60.86432 -51.34052 32756 ft 494 kts 82°
2026-05-07 05:14 60.87652 -51.22556 32777 ft 495 kts 83°
2026-05-07 05:14 60.89106 -51.08718 32767 ft 495 kts 83°
2026-05-07 05:15 60.90536 -50.94966 32810 ft 495 kts 83°
2026-05-07 05:15 60.91959 -50.81138 32829 ft 495 kts 83°
2026-05-07 05:16 60.93371 -50.67277 32845 ft 494 kts 83°
2026-05-07 05:16 60.94765 -50.53432 32866 ft 494 kts 83°
2026-05-07 05:17 60.96147 -50.39552 32805 ft 495 kts 83°
2026-05-07 05:17 60.97516 -50.25643 32806 ft 496 kts 83°
2026-05-07 05:18 60.98875 -50.11698 32818 ft 496 kts 83°
2026-05-07 05:18 61.00132 -49.97745 32816 ft 493 kts 88°
2026-05-07 05:19 61.00681 -49.83709 32851 ft 491 kts 91°
2026-05-07 05:19 61.01119 -49.69662 32860 ft 491 kts 91°
2026-05-07 05:20 61.01566 -49.55686 32866 ft 492 kts 91°
2026-05-07 05:20 61.02027 -49.41603 32839 ft 492 kts 91°
2026-05-07 05:21 61.02706 -49.20480 32829 ft 492 kts 90°
2026-05-07 05:22 61.03139 -49.06388 32857 ft 492 kts 90°
2026-05-07 05:22 61.03557 -48.92297 32865 ft 492 kts 90°
2026-05-07 05:23 61.03957 -48.78292 32871 ft 492 kts 91°
2026-05-07 05:23 61.04344 -48.64189 32900 ft 492 kts 91°
2026-05-07 05:24 61.04716 -48.50100 32906 ft 492 kts 91°
2026-05-07 05:24 61.05075 -48.35978 32861 ft 492 kts 90°
2026-05-07 05:25 61.05419 -48.21868 32878 ft 493 kts 90°
2026-05-07 05:25 61.05748 -48.07703 32880 ft 494 kts 90°
2026-05-07 05:26 61.06063 -47.93546 32911 ft 493 kts 90°
2026-05-07 05:26 61.06362 -47.79481 32928 ft 493 kts 90°
2026-05-07 05:27 61.06647 -47.65307 32942 ft 494 kts 90°
2026-05-07 05:27 61.06917 -47.51134 32931 ft 494 kts 91°
2026-05-07 05:28 61.07173 -47.36951 32925 ft 494 kts 90°
2026-05-07 05:28 61.07415 -47.22742 32931 ft 494 kts 90°
2026-05-07 05:29 61.07642 -47.08544 32942 ft 495 kts 90°
2026-05-07 05:29 61.07853 -46.94329 32947 ft 495 kts 90°
2026-05-07 05:30 61.08050 -46.80134 32951 ft 495 kts 91°
2026-05-07 05:30 61.08231 -46.65911 32952 ft 495 kts 91°
2026-05-07 05:31 61.08394 -46.51825 32906 ft 486 kts 90°
2026-05-07 05:31 61.08464 -46.44938 32876 ft 473 kts 90°
2026-05-07 05:31 61.08531 -46.38235 32841 ft 461 kts 90°
2026-05-07 05:31 61.08597 -46.31693 32811 ft 450 kts 90°
2026-05-07 05:32 61.08658 -46.25266 32636 ft 444 kts 90°
2026-05-07 05:32 61.08715 -46.18897 32272 ft 443 kts 90°
2026-05-07 05:32 61.08769 -46.12544 31970 ft 441 kts 90°
2026-05-07 05:32 61.08818 -46.06219 31651 ft 439 kts 90°
2026-05-07 05:33 61.08863 -45.99912 31323 ft 438 kts 90°
2026-05-07 05:33 61.08906 -45.93639 31037 ft 435 kts 90°
2026-05-07 05:33 61.08948 -45.87405 30804 ft 432 kts 90°
2026-05-07 05:33 61.08985 -45.81206 30483 ft 431 kts 90°
2026-05-07 05:34 61.09022 -45.75006 30191 ft 430 kts 90°
2026-05-07 05:34 61.09057 -45.68867 29931 ft 427 kts 90°
2026-05-07 05:34 61.09090 -45.62733 29740 ft 423 kts 90°
2026-05-07 05:34 61.09116 -45.56724 29415 ft 422 kts 90°
2026-05-07 05:35 61.09140 -45.50675 29162 ft 420 kts 89°
2026-05-07 05:35 61.09164 -45.44669 28976 ft 416 kts 89°
2026-05-07 05:35 61.09181 -45.38679 28671 ft 416 kts 88°
2026-05-07 05:35 61.09198 -45.32691 28393 ft 415 kts 88°
2026-05-07 05:36 61.09213 -45.26761 28156 ft 414 kts 89°
2026-05-07 05:36 61.09227 -45.20848 28012 ft 410 kts 89°
2026-05-07 05:36 61.09234 -45.14931 27782 ft 407 kts 89°
2026-05-07 05:36 61.09237 -45.09071 27527 ft 408 kts 89°
2026-05-07 05:37 61.09242 -45.03243 27372 ft 405 kts 89°
2026-05-07 05:37 61.09244 -44.97424 27228 ft 402 kts 89°
2026-05-07 05:37 61.09241 -44.91722 26986 ft 401 kts 89°
2026-05-07 05:37 61.09237 -44.85974 26774 ft 401 kts 89°
2026-05-07 05:38 61.09233 -44.80258 26675 ft 397 kts 89°
2026-05-07 05:38 61.09225 -44.74551 26522 ft 394 kts 89°
2026-05-07 05:38 61.09210 -44.68862 26285 ft 395 kts 89°
2026-05-07 05:38 61.09195 -44.63218 26113 ft 393 kts 89°
2026-05-07 05:39 61.09180 -44.57589 25981 ft 390 kts 89°
2026-05-07 05:39 61.09162 -44.51993 25854 ft 387 kts 88°
2026-05-07 05:39 61.09138 -44.46419 25640 ft 387 kts 88°
2026-05-07 05:39 61.09115 -44.40873 25500 ft 386 kts 88°
2026-05-07 05:40 61.09093 -44.35369 25441 ft 382 kts 88°
2026-05-07 05:40 61.09067 -44.29884 25320 ft 379 kts 88°
2026-05-07 05:40 61.09036 -44.24419 25119 ft 380 kts 88°
2026-05-07 05:40 61.09005 -44.19049 24963 ft 379 kts 88°
2026-05-07 05:41 61.08975 -44.13627 24881 ft 376 kts 89°
2026-05-07 05:41 61.08941 -44.08231 24742 ft 373 kts 89°
2026-05-07 05:41 61.08901 -44.02856 24564 ft 373 kts 88°
2026-05-07 05:41 61.08860 -43.97514 24445 ft 373 kts 89°
2026-05-07 05:42 61.08822 -43.92207 24381 ft 369 kts 89°
2026-05-07 05:42 61.08778 -43.86892 24256 ft 366 kts 89°
2026-05-07 05:42 61.08730 -43.81611 24064 ft 367 kts 89°
2026-05-07 05:42 61.08683 -43.76370 23946 ft 366 kts 89°
2026-05-07 05:43 61.08638 -43.71209 23866 ft 362 kts 89°
2026-05-07 05:43 61.08588 -43.65993 23729 ft 360 kts 89°
2026-05-07 05:43 61.08533 -43.60805 23553 ft 362 kts 89°
2026-05-07 05:43 61.08477 -43.55625 23370 ft 362 kts 88°
2026-05-07 05:44 61.08423 -43.50449 23293 ft 359 kts 89°
2026-05-07 05:44 61.08364 -43.45310 23157 ft 358 kts 87°
2026-05-07 05:44 61.08305 -43.40195 23055 ft 355 kts 86°
2026-05-07 05:44 61.08244 -43.35056 22884 ft 356 kts 86°
2026-05-07 05:45 61.08181 -43.29966 22811 ft 354 kts 87°
2026-05-07 05:45 61.08117 -43.24887 22727 ft 352 kts 87°
2026-05-07 05:45 61.08050 -43.19884 22565 ft 352 kts 86°
2026-05-07 05:45 61.07979 -43.14838 22437 ft 352 kts 87°
2026-05-07 05:46 61.07912 -43.09810 22365 ft 349 kts 87°
2026-05-07 05:46 61.07838 -43.04796 22211 ft 349 kts 86°
2026-05-07 05:46 61.07766 -42.99786 22170 ft 347 kts 87°
2026-05-07 05:46 61.07690 -42.94806 22034 ft 346 kts 87°
2026-05-07 05:47 61.07614 -42.89853 21906 ft 346 kts 87°
2026-05-07 05:47 61.07538 -42.84898 21856 ft 343 kts 87°
2026-05-07 05:47 61.07457 -42.79963 21724 ft 343 kts 87°
2026-05-07 05:47 61.07375 -42.75051 21629 ft 343 kts 87°
2026-05-07 05:48 61.07295 -42.70149 21573 ft 340 kts 87°
2026-05-07 05:48 61.07210 -42.65257 21462 ft 339 kts 87°
2026-05-07 05:48 61.07123 -42.60386 21328 ft 340 kts 87°
2026-05-07 05:48 61.07038 -42.55528 21292 ft 337 kts 87°
2026-05-07 05:49 61.06948 -42.50685 21158 ft 337 kts 87°
2026-05-07 05:49 61.06858 -42.45862 21162 ft 334 kts 86°
2026-05-07 05:49 61.06764 -42.41074 21043 ft 334 kts 86°
2026-05-07 05:49 61.06673 -42.36302 21014 ft 331 kts 86°
2026-05-07 05:50 61.06581 -42.31593 20898 ft 331 kts 86°
2026-05-07 05:50 61.06485 -42.26852 20811 ft 331 kts 86°
2026-05-07 05:50 61.06390 -42.22112 20772 ft 328 kts 86°
2026-05-07 05:50 61.06292 -42.17378 20655 ft 329 kts 86°
2026-05-07 05:51 61.06192 -42.12676 20603 ft 328 kts 86°
2026-05-07 05:51 61.06091 -42.07971 20505 ft 326 kts 86°
2026-05-07 05:51 61.05987 -42.03286 20414 ft 327 kts 86°
2026-05-07 05:51 61.05886 -41.98619 20393 ft 324 kts 86°
2026-05-07 05:52 61.05780 -41.93991 20389 ft 321 kts 86°
2026-05-07 05:52 61.05676 -41.89413 20385 ft 318 kts 86°
2026-05-07 05:52 61.05572 -41.84892 20376 ft 314 kts 86°
2026-05-07 05:52 61.05467 -41.80439 20310 ft 314 kts 86°
2026-05-07 05:53 61.05360 -41.75940 20210 ft 314 kts 86°
2026-05-07 05:53 61.05250 -41.71430 20115 ft 314 kts 86°
2026-05-07 05:53 61.05140 -41.66923 20045 ft 314 kts 87°
2026-05-07 05:53 61.05028 -41.62428 19983 ft 313 kts 86°
2026-05-07 05:54 61.04916 -41.57937 19891 ft 314 kts 86°
2026-05-07 05:54 61.04801 -41.53435 19813 ft 313 kts 86°
2026-05-07 05:54 61.04683 -41.48938 19805 ft 312 kts 85°
2026-05-07 05:54 61.04563 -41.44494 19790 ft 309 kts 84°
2026-05-07 05:55 61.04445 -41.40088 19788 ft 306 kts 84°
2026-05-07 05:55 61.04329 -41.35727 19759 ft 304 kts 84°
2026-05-07 05:55 61.04212 -41.31367 19680 ft 304 kts 84°
2026-05-07 05:55 61.04093 -41.27000 19588 ft 305 kts 84°
2026-05-07 05:56 61.03973 -41.22636 19499 ft 305 kts 85°
2026-05-07 05:56 61.03852 -41.18322 19448 ft 304 kts 85°
2026-05-07 05:56 61.03728 -41.13972 19395 ft 304 kts 85°
2026-05-07 05:56 61.03602 -41.09627 19343 ft 303 kts 85°
2026-05-07 05:57 61.03476 -41.05295 19296 ft 302 kts 85°
2026-05-07 05:57 61.03349 -41.00972 19225 ft 302 kts 85°
2026-05-07 05:57 61.03222 -40.96648 19174 ft 302 kts 85°
2026-05-07 05:57 61.03092 -40.92333 19120 ft 301 kts 85°
2026-05-07 05:58 61.02961 -40.88021 19074 ft 300 kts 85°
2026-05-07 05:58 61.02829 -40.83735 19026 ft 300 kts 85°
2026-05-07 05:58 61.02696 -40.79454 18972 ft 299 kts 85°
2026-05-07 05:58 61.02562 -40.75154 18918 ft 299 kts 85°
2026-05-07 05:59 61.02427 -40.70879 18863 ft 298 kts 85°
2026-05-07 05:59 61.02290 -40.66609 18827 ft 298 kts 85°
2026-05-07 05:59 61.02153 -40.62346 18758 ft 298 kts 85°
2026-05-07 05:59 61.02015 -40.58072 18704 ft 298 kts 85°
2026-05-07 06:00 61.01876 -40.53871 18680 ft 297 kts 85°
2026-05-07 06:00 61.01734 -40.49643 18711 ft 294 kts 83°
2026-05-07 06:00 61.01593 -40.45455 18704 ft 292 kts 83°
2026-05-07 06:00 61.01452 -40.41280 18670 ft 291 kts 83°
2026-05-07 06:01 61.01312 -40.37112 18560 ft 293 kts 83°
2026-05-07 06:01 61.01217 -40.34316 18501 ft 293 kts 83°
2026-05-07 06:01 61.01073 -40.30125 18435 ft 293 kts 83°
2026-05-07 06:01 61.00927 -40.25941 18405 ft 292 kts 83°
2026-05-07 06:02 61.00780 -40.21779 18400 ft 290 kts 83°
2026-05-07 06:02 61.00633 -40.17637 18340 ft 290 kts 83°
2026-05-07 06:02 61.00487 -40.13477 18251 ft 291 kts 83°
2026-05-07 06:02 61.00338 -40.09307 18164 ft 292 kts 84°
2026-05-07 06:03 61.00184 -40.05129 18108 ft 292 kts 84°
2026-05-07 06:03 61.00029 -40.00970 18115 ft 290 kts 84°
2026-05-07 06:03 60.99845 -39.96837 18088 ft 290 kts 86°
2026-05-07 06:03 60.99598 -39.92697 18002 ft 292 kts 87°
2026-05-07 06:04 60.99334 -39.88544 17917 ft 293 kts 87°
2026-05-07 06:04 60.99066 -39.84380 17862 ft 293 kts 87°
2026-05-07 06:04 60.98798 -39.80229 17867 ft 291 kts 87°
2026-05-07 06:04 60.98536 -39.76162 17848 ft 290 kts 87°
2026-05-07 06:05 60.98274 -39.72043 17760 ft 291 kts 87°
2026-05-07 06:05 60.98012 -39.67896 17677 ft 293 kts 88°
2026-05-07 06:05 60.97748 -39.63732 17605 ft 294 kts 88°
2026-05-07 06:05 60.97483 -39.59564 17583 ft 292 kts 88°
2026-05-07 06:06 60.97216 -39.55429 17580 ft 291 kts 88°
2026-05-07 06:06 60.96950 -39.51312 17599 ft 290 kts 88°
2026-05-07 06:06 60.96684 -39.47173 17506 ft 292 kts 88°
2026-05-07 06:06 60.96418 -39.43034 17418 ft 293 kts 88°
2026-05-07 06:07 60.96148 -39.38871 17390 ft 292 kts 88°
2026-05-07 06:07 60.95877 -39.34735 17394 ft 290 kts 88°
2026-05-07 06:07 60.95611 -39.30682 17386 ft 289 kts 88°
2026-05-07 06:07 60.95340 -39.26579 17312 ft 290 kts 88°
2026-05-07 06:08 60.95069 -39.22453 17239 ft 292 kts 88°
2026-05-07 06:08 60.94793 -39.18306 17191 ft 292 kts 88°
2026-05-07 06:08 60.94517 -39.14176 17202 ft 290 kts 88°
2026-05-07 06:08 60.94241 -39.10074 17198 ft 289 kts 88°
2026-05-07 06:09 60.93964 -39.05987 17155 ft 288 kts 88°
2026-05-07 06:09 60.93688 -39.01890 17073 ft 290 kts 88°
2026-05-07 06:09 60.93409 -38.97774 17018 ft 291 kts 88°
2026-05-07 06:09 60.93127 -38.93659 16993 ft 290 kts 89°
2026-05-07 06:10 60.92845 -38.89565 16985 ft 289 kts 89°
2026-05-07 06:10 60.92563 -38.85488 16993 ft 287 kts 89°
2026-05-07 06:10 60.92280 -38.81414 16931 ft 289 kts 89°
2026-05-07 06:10 60.91997 -38.77313 16865 ft 291 kts 89°
2026-05-07 06:11 60.91714 -38.73237 16789 ft 292 kts 89°
2026-05-07 06:11 60.91425 -38.69127 16795 ft 290 kts 89°
2026-05-07 06:11 60.91133 -38.65021 16797 ft 289 kts 89°
2026-05-07 06:11 60.90843 -38.60942 16785 ft 288 kts 89°
2026-05-07 06:12 60.90552 -38.56861 16716 ft 289 kts 89°
2026-05-07 06:12 60.90259 -38.52750 16685 ft 291 kts 90°
2026-05-07 06:12 60.89965 -38.48649 16680 ft 290 kts 90°
2026-05-07 06:12 60.89668 -38.44559 16677 ft 289 kts 90°
2026-05-07 06:13 60.89372 -38.40482 16673 ft 288 kts 90°
2026-05-07 06:13 60.89077 -38.36426 16672 ft 287 kts 90°
2026-05-07 06:13 60.88783 -38.32390 16657 ft 286 kts 90°
2026-05-07 06:13 60.88485 -38.28343 16599 ft 287 kts 90°
2026-05-07 06:14 60.88187 -38.24273 16539 ft 289 kts 90°
2026-05-07 06:14 60.87886 -38.20201 16530 ft 288 kts 90°
2026-05-07 06:14 60.87583 -38.16151 16531 ft 287 kts 90°
2026-05-07 06:14 60.87281 -38.12111 16531 ft 285 kts 90°
2026-05-07 06:15 60.86983 -38.08138 16511 ft 285 kts 90°
2026-05-07 06:15 60.86679 -38.04098 16442 ft 287 kts 90°
2026-05-07 06:15 60.86373 -38.00040 16372 ft 288 kts 90°
2026-05-07 06:15 60.86065 -37.95984 16375 ft 287 kts 91°
2026-05-07 06:16 60.85756 -37.91946 16381 ft 286 kts 91°
2026-05-07 06:16 60.85448 -37.87925 16389 ft 285 kts 91°
2026-05-07 06:16 60.85138 -37.83881 16317 ft 288 kts 91°
2026-05-07 06:16 60.84827 -37.79824 16266 ft 289 kts 91°
2026-05-07 06:17 60.84511 -37.75750 16256 ft 288 kts 91°
2026-05-07 06:17 60.84194 -37.71695 16258 ft 287 kts 91°
2026-05-07 06:17 60.83878 -37.67656 16258 ft 287 kts 91°
2026-05-07 06:17 60.83562 -37.63628 16255 ft 286 kts 91°
2026-05-07 06:18 60.83250 -37.59665 16252 ft 285 kts 91°
2026-05-07 06:18 60.82933 -37.55656 16216 ft 286 kts 91°
2026-05-07 06:18 60.82612 -37.51617 16156 ft 287 kts 91°
2026-05-07 06:18 60.82290 -37.47567 16120 ft 288 kts 91°
2026-05-07 06:19 60.81966 -37.43525 16124 ft 287 kts 91°
2026-05-07 06:19 60.81642 -37.39504 16125 ft 286 kts 91°
2026-05-07 06:19 60.81318 -37.35485 16124 ft 285 kts 91°
2026-05-07 06:19 60.80993 -37.31473 16123 ft 284 kts 91°
2026-05-07 06:20 60.80669 -37.27479 16111 ft 284 kts 91°
2026-05-07 06:20 60.80342 -37.23472 16056 ft 286 kts 91°
2026-05-07 06:20 60.80016 -37.19485 16001 ft 287 kts 92°
2026-05-07 06:20 60.79685 -37.15455 15999 ft 287 kts 92°
2026-05-07 06:21 60.79352 -37.11437 16001 ft 286 kts 92°
2026-05-07 06:21 60.79019 -37.07419 16003 ft 285 kts 92°
2026-05-07 06:21 60.78687 -37.03419 16005 ft 285 kts 92°
2026-05-07 06:21 60.78353 -36.99423 16009 ft 284 kts 92°
2026-05-07 06:22 60.78019 -36.95433 15972 ft 285 kts 92°
2026-05-07 06:22 60.77343 -36.87395 15914 ft 286 kts 92°
2026-05-07 06:22 60.77001 -36.83377 15915 ft 286 kts 92°
2026-05-07 06:23 60.76660 -36.79370 15912 ft 285 kts 92°
2026-05-07 06:23 60.76323 -36.75427 15912 ft 285 kts 92°
2026-05-07 06:23 60.75981 -36.71426 15912 ft 284 kts 92°
2026-05-07 06:23 60.75639 -36.67451 15914 ft 284 kts 92°
2026-05-07 06:24 60.75294 -36.63462 15855 ft 285 kts 92°
2026-05-07 06:24 60.74948 -36.59451 15818 ft 286 kts 92°
2026-05-07 06:24 60.74600 -36.55450 15827 ft 286 kts 92°
2026-05-07 06:24 60.74250 -36.51455 15875 ft 284 kts 93°
2026-05-07 06:25 60.73901 -36.47483 15884 ft 284 kts 93°
2026-05-07 06:25 60.73553 -36.43521 15881 ft 283 kts 93°
2026-05-07 06:25 60.73208 -36.39608 15882 ft 283 kts 93°
2026-05-07 06:25 60.72860 -36.35662 15884 ft 282 kts 93°
2026-05-07 06:26 60.72510 -36.31714 15884 ft 282 kts 93°
2026-05-07 06:26 60.72159 -36.27780 15885 ft 281 kts 93°
2026-05-07 06:26 60.71807 -36.23837 15885 ft 281 kts 93°
2026-05-07 06:26 60.71455 -36.19916 15887 ft 280 kts 93°
2026-05-07 06:27 60.71103 -36.16009 15889 ft 280 kts 93°
2026-05-07 06:27 60.70750 -36.12105 15891 ft 279 kts 93°
2026-05-07 06:27 60.70395 -36.08198 15867 ft 281 kts 93°
2026-05-07 06:27 60.70038 -36.04264 15805 ft 283 kts 93°
2026-05-07 06:28 60.69677 -36.00310 15777 ft 283 kts 94°
2026-05-07 06:28 60.69315 -35.96364 15782 ft 283 kts 94°
2026-05-07 06:28 60.68951 -35.92418 15787 ft 282 kts 94°
2026-05-07 06:28 60.68593 -35.88536 15784 ft 282 kts 94°
2026-05-07 06:29 60.68230 -35.84610 15790 ft 281 kts 94°
2026-05-07 06:29 60.67866 -35.80690 15791 ft 281 kts 94°
2026-05-07 06:29 60.67501 -35.76774 15791 ft 281 kts 94°
2026-05-07 06:29 60.67135 -35.72860 15791 ft 280 kts 94°
2026-05-07 06:30 60.66769 -35.68959 15788 ft 280 kts 94°
2026-05-07 06:30 60.66403 -35.65064 15793 ft 279 kts 94°
2026-05-07 06:30 60.66036 -35.61182 15793 ft 279 kts 94°
2026-05-07 06:30 60.65666 -35.57286 15739 ft 281 kts 94°
2026-05-07 06:31 60.65293 -35.53361 15702 ft 282 kts 94°
2026-05-07 06:31 60.64920 -35.49440 15744 ft 281 kts 94°
2026-05-07 06:31 60.64543 -35.45528 15748 ft 281 kts 94°
2026-05-07 06:31 60.64168 -35.41620 15745 ft 280 kts 94°
2026-05-07 06:32 60.63798 -35.37773 15767 ft 280 kts 94°
2026-05-07 06:32 60.63421 -35.33872 15769 ft 280 kts 94°
2026-05-07 06:32 60.63045 -35.29981 15769 ft 280 kts 94°
2026-05-07 06:32 60.62668 -35.26098 15772 ft 279 kts 94°
2026-05-07 06:33 60.62289 -35.22212 15775 ft 279 kts 95°
2026-05-07 06:33 60.61910 -35.18341 15778 ft 279 kts 95°
2026-05-07 06:33 60.61535 -35.14518 15780 ft 279 kts 95°
2026-05-07 06:33 60.61153 -35.10641 15782 ft 278 kts 95°
2026-05-07 06:34 60.60770 -35.06771 15788 ft 278 kts 95°
2026-05-07 06:34 60.60387 -35.02907 15790 ft 278 kts 95°
2026-05-07 06:34 60.60003 -34.99049 15786 ft 278 kts 95°
2026-05-07 06:34 60.59619 -34.95195 15788 ft 278 kts 95°
2026-05-07 06:35 60.59234 -34.91355 15789 ft 277 kts 95°
2026-05-07 06:35 60.58847 -34.87499 15792 ft 277 kts 95°
2026-05-07 06:35 60.58461 -34.83665 15793 ft 277 kts 95°
2026-05-07 06:35 60.58083 -34.79929 15788 ft 277 kts 95°
2026-05-07 06:36 60.57592 -34.76054 15353 ft 291 kts 101°
2026-05-07 06:36 60.57022 -34.72011 14949 ft 300 kts 98°
2026-05-07 06:36 60.56550 -34.67843 14668 ft 304 kts 95°
2026-05-07 06:36 60.56165 -34.63578 14395 ft 309 kts 94°
2026-05-07 06:37 60.55796 -34.59273 14257 ft 309 kts 95°
2026-05-07 06:37 60.55416 -34.54993 14171 ft 306 kts 95°
2026-05-07 06:37 60.55022 -34.50745 14106 ft 305 kts 96°
2026-05-07 06:37 60.54702 -34.47401 14012 ft 303 kts 96°
2026-05-07 06:38 60.54060 -34.43297 13809 ft 307 kts 116°
2026-05-07 06:38 60.53049 -34.39495 13858 ft 304 kts 103°